| time (UTC) | temp C | wind direction | speed KPH | gust KPH | rain 1hr cm | rain 24hr cm | rain mn cm | humidity % | barometer mb |
| 20260901114932 | 22 | 355 | 1.6 | 4.8 | 0.00 | 0.00 | 0.00 | 93 | 1019.4 |
| 20260901114903 | 22 | 355 | 1.6 | 4.8 | 0.00 | 0.00 | 0.00 | 93 | 1019.4 |
| 20260901114657 | 22 | 355 | 1.6 | 4.8 | 0.00 | 0.00 | 0.00 | 93 | 1019.3 |
| 20260901114529 | 22 | 355 | 1.6 | 4.8 | 0.00 | 0.00 | 0.00 | 93 | 1019.3 |
| 20260901114457 | 22 | 355 | 1.6 | 4.8 | 0.00 | 0.00 | 0.00 | 93 | 1019.4 |
| 20260901114322 | 22 | 355 | 1.6 | 4.8 | 0.00 | 0.00 | 0.00 | 93 | 1019.3 |
| 20260901114230 | 22 | 355 | 1.6 | 4.8 | 0.00 | 0.00 | 0.00 | 93 | 1019.3 |
| 20260901114138 | 22 | 355 | 1.6 | 4.8 | 0.00 | 0.00 | 0.00 | 92 | 1019.3 |
| 20260901114025 | 22 | 355 | 3.2 | 4.8 | 0.00 | 0.00 | 0.00 | 92 | 1019.3 |
| 20260901113936 | 22 | 355 | 3.2 | 4.8 | 0.00 | 0.00 | 0.00 | 92 | 1019.2 |
| 20260901113823 | 22 | 355 | 1.6 | 4.8 | 0.00 | 0.00 | 0.00 | 92 | 1019.2 |
| 20260901113730 | 22 | 355 | 3.2 | 4.8 | 0.00 | 0.00 | 0.00 | 92 | 1019.2 |
| 20260901113638 | 22 | 355 | 3.2 | 4.8 | 0.00 | 0.00 | 0.00 | 92 | 1019.2 |
| 20260901113527 | 22 | 355 | 3.2 | 4.8 | 0.00 | 0.00 | 0.00 | 92 | 1019.3 |
| 20260901113410 | 22 | 355 | 3.2 | 4.8 | 0.00 | 0.00 | 0.00 | 92 | 1019.2 |
| 20260901113123 | 22 | 355 | 3.2 | 4.8 | 0.00 | 0.00 | 0.00 | 92 | 1019.2 |
| 20260901113030 | 22 | 355 | 3.2 | 4.8 | 0.00 | 0.00 | 0.00 | 92 | 1019.2 |
| 20260901112958 | 22 | 355 | 3.2 | 4.8 | 0.00 | 0.00 | 0.00 | 92 | 1019.2 |
| 20260901112828 | 22 | 355 | 3.2 | 4.8 | 0.00 | 0.00 | 0.00 | 92 | 1019.2 |
| 20260901112733 | 22 | 355 | 3.2 | 4.8 | 0.00 | 0.00 | 0.00 | 92 | 1019.2 |
| 20260901112622 | 22 | 355 | 3.2 | 4.8 | 0.00 | 0.00 | 0.00 | 92 | 1019.2 |
| 20260901112530 | 22 | 355 | 3.2 | 4.8 | 0.00 | 0.00 | 0.00 | 92 | 1019.2 |
| 20260901112437 | 22 | 355 | 3.2 | 4.8 | 0.00 | 0.00 | 0.00 | 92 | 1019.2 |
| 20260901112328 | 22 | 355 | 3.2 | 4.8 | 0.00 | 0.00 | 0.00 | 92 | 1019.2 |
| 20260901112236 | 22 | 355 | 3.2 | 4.8 | 0.00 | 0.00 | 0.00 | 92 | 1019.1 |
| 20260901112122 | 22 | 355 | 3.2 | 4.8 | 0.00 | 0.00 | 0.00 | 92 | 1019.1 |
| 20260901112029 | 22 | 355 | 3.2 | 4.8 | 0.00 | 0.00 | 0.00 | 92 | 1019.1 |
| 20260901111931 | 22 | 355 | 3.2 | 4.8 | 0.00 | 0.00 | 0.00 | 92 | 1019.1 |
| 20260901111622 | 22 | 355 | 3.2 | 6.4 | 0.00 | 0.00 | 0.00 | 92 | 1019.0 |
| 20260901111528 | 22 | 355 | 3.2 | 6.4 | 0.00 | 0.00 | 0.00 | 92 | 1019.1 |
| 20260901111455 | 22 | 355 | 3.2 | 6.4 | 0.00 | 0.00 | 0.00 | 92 | 1019.1 |
| 20260901111322 | 22 | 355 | 3.2 | 6.4 | 0.00 | 0.00 | 0.00 | 92 | 1019.1 |
| 20260901111229 | 22 | 355 | 3.2 | 6.4 | 0.00 | 0.00 | 0.00 | 92 | 1019.1 |
| 20260901111121 | 22 | 355 | 3.2 | 6.4 | 0.00 | 0.00 | 0.00 | 92 | 1019.0 |
| 20260901111029 | 22 | 355 | 3.2 | 6.4 | 0.00 | 0.00 | 0.00 | 92 | 1019.0 |
| 20260901110937 | 22 | 344 | 3.2 | 4.8 | 0.00 | 0.00 | 0.00 | 92 | 1019.0 |
| 20260901110824 | 22 | 340 | 3.2 | 4.8 | 0.00 | 0.00 | 0.00 | 92 | 1019.0 |
| 20260901110731 | 22 | 343 | 3.2 | 4.8 | 0.00 | 0.00 | 0.00 | 92 | 1019.0 |
| 20260901110657 | 22 | 5 | 3.2 | 4.8 | 0.00 | 0.00 | 0.00 | 92 | 1019.1 |
| 20260901110527 | 22 | 5 | 3.2 | 4.8 | 0.00 | 0.00 | 0.00 | 92 | 1019.0 |
| 20260901110455 | 22 | 5 | 3.2 | 4.8 | 0.00 | 0.00 | 0.00 | 92 | 1019.0 |
| 20260901110404 | 22 | 5 | 3.2 | 4.8 | 0.00 | 0.00 | 0.00 | 92 | 1019.0 |
| 20260901110137 | 22 | 5 | 3.2 | 4.8 | 0.00 | 0.00 | 0.00 | 92 | 1018.9 |
| 20260901110024 | 22 | 5 | 3.2 | 4.8 | 0.00 | 0.00 | 0.00 | 92 | 1018.9 |
| 20260901105936 | 22 | 5 | 3.2 | 4.8 | 0.00 | 0.00 | 0.00 | 92 | 1019.0 |
| 20260901105824 | 22 | 5 | 3.2 | 4.8 | 0.00 | 0.00 | 0.00 | 92 | 1019.1 |
| 20260901105730 | 22 | 5 | 3.2 | 4.8 | 0.00 | 0.00 | 0.00 | 92 | 1018.9 |
| 20260901105636 | 22 | 5 | 3.2 | 4.8 | 0.00 | 0.00 | 0.00 | 92 | 1019.0 |
| 20260901105524 | 22 | 5 | 3.2 | 4.8 | 0.00 | 0.00 | 0.00 | 92 | 1019.0 |
| 20260901105435 | 22 | 5 | 3.2 | 4.8 | 0.00 | 0.00 | 0.00 | 92 | 1018.9 |
| 20260901105324 | 22 | 5 | 3.2 | 4.8 | 0.00 | 0.00 | 0.00 | 92 | 1019.0 |
| 20260901105232 | 22 | 5 | 3.2 | 4.8 | 0.00 | 0.00 | 0.00 | 92 | 1019.0 |
| 20260901105139 | 22 | 5 | 3.2 | 4.8 | 0.00 | 0.00 | 0.00 | 92 | 1019.1 |
| 20260901105027 | 22 | 5 | 3.2 | 4.8 | 0.00 | 0.00 | 0.00 | 92 | 1019.0 |
| 20260901104908 | 22 | 5 | 3.2 | 4.8 | 0.00 | 0.00 | 0.00 | 92 | 1019.1 |
| 20260901104622 | 22 | 5 | 3.2 | 4.8 | 0.00 | 0.00 | 0.00 | 92 | 1019.0 |
| 20260901104530 | 22 | 5 | 3.2 | 4.8 | 0.00 | 0.00 | 0.00 | 92 | 1019.0 |
| 20260901104439 | 22 | 5 | 3.2 | 4.8 | 0.00 | 0.00 | 0.00 | 92 | 1019.1 |
| 20260901104329 | 22 | 5 | 3.2 | 4.8 | 0.00 | 0.00 | 0.00 | 92 | 1019.0 |
| 20260901104237 | 22 | 5 | 3.2 | 4.8 | 0.00 | 0.00 | 0.00 | 92 | 1018.9 |
| 20260901104124 | 22 | 5 | 3.2 | 4.8 | 0.00 | 0.00 | 0.00 | 91 | 1018.9 |
| 20260901104031 | 22 | 5 | 3.2 | 4.8 | 0.00 | 0.00 | 0.00 | 91 | 1018.9 |
| 20260901103959 | 22 | 5 | 3.2 | 4.8 | 0.00 | 0.00 | 0.00 | 91 | 1019.0 |
| 20260901103824 | 22 | 5 | 3.2 | 4.8 | 0.00 | 0.00 | 0.00 | 91 | 1018.9 |
| 20260901103736 | 22 | 5 | 3.2 | 4.8 | 0.00 | 0.00 | 0.00 | 91 | 1018.9 |
| 20260901103623 | 22 | 5 | 3.2 | 4.8 | 0.00 | 0.00 | 0.00 | 91 | 1018.9 |
| 20260901103551 | 22 | 5 | 3.2 | 4.8 | 0.00 | 0.00 | 0.00 | 91 | 1018.9 |
| 20260901103437 | 22 | 5 | 3.2 | 4.8 | 0.00 | 0.00 | 0.00 | 91 | 1018.9 |
| 20260901103408 | 22 | 5 | 1.6 | 3.2 | 0.00 | 0.00 | 0.00 | 91 | 1018.9 |
| 20260901103125 | 22 | 5 | 0.0 | 3.2 | 0.00 | 0.00 | 0.00 | 92 | 1018.8 |
| 20260901103033 | 22 | 5 | 0.0 | 1.6 | 0.00 | 0.00 | 0.00 | 92 | 1018.9 |
| 20260901102940 | 22 | 5 | 0.0 | 1.6 | 0.00 | 0.00 | 0.00 | 92 | 1018.8 |
| 20260901102847 | 22 | 5 | 0.0 | 3.2 | 0.00 | 0.00 | 0.00 | 91 | 1018.8 |
| 20260901102733 | 22 | 5 | 0.0 | 3.2 | 0.00 | 0.00 | 0.00 | 91 | 1018.9 |
| 20260901102625 | 22 | 5 | 0.0 | 3.2 | 0.00 | 0.00 | 0.00 | 91 | 1018.9 |
| 20260901102532 | 22 | 5 | 0.0 | 3.2 | 0.00 | 0.00 | 0.00 | 91 | 1018.8 |
| 20260901102420 | 22 | 5 | 0.0 | 3.2 | 0.00 | 0.00 | 0.00 | 91 | 1018.8 |
| 20260901102348 | 22 | 5 | 0.0 | 3.2 | 0.00 | 0.00 | 0.00 | 91 | 1018.8 |
| 20260901102235 | 22 | 5 | 1.6 | 3.2 | 0.00 | 0.00 | 0.00 | 91 | 1018.8 |
| 20260901102121 | 22 | 5 | 1.6 | 3.2 | 0.00 | 0.00 | 0.00 | 91 | 1018.8 |
| 20260901102033 | 22 | 5 | 1.6 | 3.2 | 0.00 | 0.00 | 0.00 | 91 | 1018.8 |
| 20260901101932 | 22 | 5 | 1.6 | 3.2 | 0.00 | 0.00 | 0.00 | 91 | 1018.8 |
| 20260901101624 | 22 | 5 | 1.6 | 3.2 | 0.00 | 0.00 | 0.00 | 91 | 1018.7 |
| 20260901101532 | 22 | 5 | 1.6 | 3.2 | 0.00 | 0.00 | 0.00 | 91 | 1018.7 |
| 20260901101424 | 22 | 5 | 1.6 | 3.2 | 0.00 | 0.00 | 0.00 | 91 | 1018.7 |
| 20260901101332 | 22 | 5 | 1.6 | 3.2 | 0.00 | 0.00 | 0.00 | 91 | 1018.7 |
| 20260901101240 | 22 | 5 | 1.6 | 3.2 | 0.00 | 0.00 | 0.00 | 91 | 1018.7 |
| 20260901101125 | 22 | 5 | 1.6 | 3.2 | 0.00 | 0.00 | 0.00 | 92 | 1018.7 |
| 20260901101033 | 22 | 5 | 1.6 | 3.2 | 0.00 | 0.00 | 0.00 | 92 | 1018.7 |
| 20260901100925 | 22 | 5 | 1.6 | 3.2 | 0.00 | 0.00 | 0.00 | 92 | 1018.8 |
| 20260901100831 | 22 | 5 | 1.6 | 3.2 | 0.00 | 0.00 | 0.00 | 92 | 1018.7 |
| 20260901100739 | 22 | 5 | 1.6 | 3.2 | 0.00 | 0.00 | 0.00 | 92 | 1018.7 |
| 20260901100627 | 22 | 5 | 1.6 | 3.2 | 0.00 | 0.00 | 0.00 | 92 | 1018.7 |
| 20260901100533 | 22 | 5 | 1.6 | 3.2 | 0.00 | 0.00 | 0.00 | 92 | 1018.8 |
| 20260901100442 | 22 | 5 | 1.6 | 3.2 | 0.00 | 0.00 | 0.00 | 92 | 1018.7 |
| 20260901100356 | 22 | 5 | 1.6 | 3.2 | 0.00 | 0.00 | 0.00 | 92 | 1018.7 |
| 20260901100129 | 22 | 5 | 3.2 | 3.2 | 0.00 | 0.00 | 0.00 | 92 | 1018.6 |
| 20260901100056 | 22 | 5 | 3.2 | 3.2 | 0.00 | 0.00 | 0.00 | 93 | 1018.7 |
| 20260901095923 | 22 | 5 | 1.6 | 3.2 | 0.00 | 0.00 | 0.00 | 93 | 1018.6 |
| 20260901095829 | 22 | 5 | 1.6 | 3.2 | 0.00 | 0.00 | 0.00 | 93 | 1018.6 |
| 20260901095720 | 22 | 5 | 1.6 | 3.2 | 0.00 | 0.00 | 0.00 | 93 | 1018.6 |
| 20260901095627 | 22 | 5 | 1.6 | 3.2 | 0.00 | 0.00 | 0.00 | 93 | 1018.6 |
| 20260901095535 | 22 | 5 | 1.6 | 3.2 | 0.00 | 0.00 | 0.00 | 92 | 1018.5 |
| 20260901095423 | 22 | 5 | 1.6 | 3.2 | 0.00 | 0.00 | 0.00 | 92 | 1018.6 |
| 20260901095331 | 22 | 5 | 1.6 | 3.2 | 0.00 | 0.00 | 0.00 | 92 | 1018.5 |
| 20260901095222 | 22 | 5 | 1.6 | 3.2 | 0.00 | 0.00 | 0.00 | 92 | 1018.6 |
| 20260901095130 | 22 | 5 | 1.6 | 3.2 | 0.00 | 0.00 | 0.00 | 92 | 1018.5 |
| 20260901095037 | 22 | 5 | 1.6 | 3.2 | 0.00 | 0.00 | 0.00 | 92 | 1018.6 |
| 20260901094944 | 22 | 5 | 1.6 | 3.2 | 0.00 | 0.00 | 0.00 | 92 | 1018.5 |
| 20260901094916 | 22 | 5 | 1.6 | 3.2 | 0.00 | 0.00 | 0.00 | 92 | 1018.5 |
| 20260901094631 | 22 | 5 | 1.6 | 1.6 | 0.00 | 0.00 | 0.00 | 92 | 1018.5 |
| 20260901094539 | 22 | 5 | 1.6 | 1.6 | 0.00 | 0.00 | 0.00 | 92 | 1018.5 |
| 20260901094426 | 22 | 5 | 0.0 | 1.6 | 0.00 | 0.00 | 0.00 | 92 | 1018.5 |
| 20260901094333 | 22 | 5 | 0.0 | 0.0 | 0.00 | 0.00 | 0.00 | 92 | 1018.5 |
| 20260901094222 | 22 | 5 | 0.0 | 0.0 | 0.00 | 0.00 | 0.00 | 92 | 1018.5 |
| 20260901094130 | 22 | 5 | 0.0 | 0.0 | 0.00 | 0.00 | 0.00 | 92 | 1018.5 |
| 20260901094021 | 22 | 5 | 0.0 | 0.0 | 0.00 | 0.00 | 0.00 | 92 | 1018.5 |
| 20260901093929 | 22 | 5 | 0.0 | 0.0 | 0.00 | 0.00 | 0.00 | 92 | 1018.4 |
| 20260901093837 | 22 | 5 | 0.0 | 0.0 | 0.00 | 0.00 | 0.00 | 92 | 1018.5 |
| 20260901093745 | 22 | 5 | 0.0 | 0.0 | 0.00 | 0.00 | 0.00 | 92 | 1018.4 |
| 20260901093632 | 22 | 5 | 0.0 | 0.0 | 0.00 | 0.00 | 0.00 | 92 | 1018.3 |
| 20260901093538 | 22 | 5 | 0.0 | 0.0 | 0.00 | 0.00 | 0.00 | 92 | 1018.5 |
| 20260901093511 | 22 | 5 | 0.0 | 0.0 | 0.00 | 0.00 | 0.00 | 92 | 1018.5 |
| 20260901093358 | 22 | 5 | 0.0 | 0.0 | 0.00 | 0.00 | 0.00 | 92 | 1018.4 |
| 20260901093132 | 22 | 5 | 0.0 | 0.0 | 0.00 | 0.00 | 0.00 | 92 | 1018.5 |
| 20260901093039 | 22 | 5 | 0.0 | 0.0 | 0.00 | 0.00 | 0.00 | 92 | 1018.4 |
| 20260901092947 | 22 | 5 | 0.0 | 0.0 | 0.00 | 0.00 | 0.00 | 92 | 1018.4 |
| 20260901092836 | 22 | 5 | 0.0 | 0.0 | 0.00 | 0.00 | 0.00 | 92 | 1018.4 |
| 20260901092724 | 22 | 5 | 0.0 | 0.0 | 0.00 | 0.00 | 0.00 | 92 | 1018.4 |
| 20260901092632 | 22 | 5 | 0.0 | 0.0 | 0.00 | 0.00 | 0.00 | 92 | 1018.5 |
| 20260901092600 | 22 | 5 | 0.0 | 0.0 | 0.00 | 0.00 | 0.00 | 92 | 1018.5 |
| 20260901092425 | 22 | 5 | 0.0 | 0.0 | 0.00 | 0.00 | 0.00 | 92 | 1018.5 |
| 20260901092332 | 22 | 5 | 0.0 | 0.0 | 0.00 | 0.00 | 0.00 | 92 | 1018.5 |
| 20260901092224 | 22 | 5 | 0.0 | 0.0 | 0.00 | 0.00 | 0.00 | 92 | 1018.4 |
| 20260901092131 | 22 | 5 | 0.0 | 0.0 | 0.00 | 0.00 | 0.00 | 92 | 1018.4 |
| 20260901092037 | 22 | 5 | 0.0 | 0.0 | 0.00 | 0.00 | 0.00 | 92 | 1018.5 |
| 20260901091924 | 22 | 5 | 0.0 | 0.0 | 0.00 | 0.00 | 0.00 | 92 | 1018.4 |
| 20260901091855 | 22 | 5 | 0.0 | 1.6 | 0.00 | 0.00 | 0.00 | 92 | 1018.4 |
| 20260901091632 | 22 | 5 | 0.0 | 3.2 | 0.00 | 0.00 | 0.00 | 92 | 1018.3 |
| 20260901091539 | 22 | 5 | 0.0 | 3.2 | 0.00 | 0.00 | 0.00 | 92 | 1018.4 |
| 20260901091446 | 22 | 5 | 0.0 | 3.2 | 0.00 | 0.00 | 0.00 | 92 | 1018.4 |
| 20260901091352 | 22 | 5 | 0.0 | 3.2 | 0.00 | 0.00 | 0.00 | 91 | 1018.3 |
| 20260901091239 | 22 | 5 | 0.0 | 3.2 | 0.00 | 0.00 | 0.00 | 91 | 1018.3 |
| 20260901091126 | 22 | 5 | 0.0 | 3.2 | 0.00 | 0.00 | 0.00 | 91 | 1018.3 |
| 20260901091038 | 22 | 5 | 0.0 | 3.2 | 0.00 | 0.00 | 0.00 | 91 | 1018.2 |
| 20260901090946 | 22 | 5 | 1.6 | 3.2 | 0.00 | 0.00 | 0.00 | 91 | 1018.2 |
| 20260901090852 | 22 | 5 | 1.6 | 3.2 | 0.00 | 0.00 | 0.00 | 91 | 1018.3 |
| 20260901090739 | 22 | 5 | 1.6 | 3.2 | 0.00 | 0.00 | 0.00 | 91 | 1018.3 |
| 20260901090627 | 22 | 5 | 1.6 | 3.2 | 0.00 | 0.00 | 0.00 | 91 | 1018.3 |
| 20260901090535 | 22 | 5 | 1.6 | 3.2 | 0.00 | 0.00 | 0.00 | 90 | 1018.2 |
| 20260901090427 | 22 | 5 | 1.6 | 3.2 | 0.00 | 0.00 | 0.00 | 90 | 1018.3 |
| 20260901090358 | 22 | 5 | 1.6 | 3.2 | 0.00 | 0.00 | 0.00 | 90 | 1018.3 |
| 20260901090130 | 22 | 5 | 1.6 | 3.2 | 0.00 | 0.00 | 0.00 | 90 | 1018.2 |
| 20260901090036 | 22 | 5 | 3.2 | 3.2 | 0.00 | 0.00 | 0.00 | 90 | 1018.2 |
| 20260901085924 | 22 | 5 | 3.2 | 3.2 | 0.00 | 0.00 | 0.00 | 90 | 1018.3 |
| 20260901085835 | 22 | 5 | 3.2 | 3.2 | 0.00 | 0.00 | 0.00 | 90 | 1018.2 |
| 20260901085722 | 22 | 5 | 3.2 | 3.2 | 0.00 | 0.00 | 0.00 | 91 | 1018.2 |
| 20260901085650 | 22 | 5 | 3.2 | 3.2 | 0.00 | 0.00 | 0.00 | 91 | 1018.2 |
| 20260901085537 | 22 | 5 | 3.2 | 3.2 | 0.00 | 0.00 | 0.00 | 91 | 1018.2 |
| 20260901085425 | 23 | 5 | 3.2 | 3.2 | 0.00 | 0.00 | 0.00 | 91 | 1018.1 |
| 20260901085332 | 23 | 5 | 1.6 | 3.2 | 0.00 | 0.00 | 0.00 | 91 | 1018.2 |
| 20260901085244 | 23 | 5 | 1.6 | 3.2 | 0.00 | 0.00 | 0.00 | 91 | 1018.1 |
| 20260901085131 | 23 | 5 | 1.6 | 3.2 | 0.00 | 0.00 | 0.00 | 91 | 1018.2 |
| 20260901085038 | 23 | 5 | 1.6 | 3.2 | 0.00 | 0.00 | 0.00 | 91 | 1018.1 |
| 20260901084946 | 23 | 5 | 1.6 | 3.2 | 0.00 | 0.00 | 0.00 | 91 | 1018.0 |
| 20260901084856 | 23 | 5 | 1.6 | 3.2 | 0.00 | 0.00 | 0.00 | 91 | 1018.0 |
| 20260901084653 | 23 | 5 | 1.6 | 3.2 | 0.00 | 0.00 | 0.00 | 91 | 1018.1 |
| 20260901084539 | 23 | 5 | 3.2 | 3.2 | 0.00 | 0.00 | 0.00 | 91 | 1018.1 |
| 20260901084426 | 23 | 5 | 3.2 | 3.2 | 0.00 | 0.00 | 0.00 | 91 | 1018.1 |
| 20260901084333 | 23 | 5 | 1.6 | 3.2 | 0.00 | 0.00 | 0.00 | 91 | 1018.1 |
| 20260901084220 | 23 | 5 | 1.6 | 3.2 | 0.00 | 0.00 | 0.00 | 91 | 1018.1 |
| 20260901084128 | 23 | 5 | 1.6 | 1.6 | 0.00 | 0.00 | 0.00 | 91 | 1018.2 |
| 20260901084040 | 23 | 5 | 0.0 | 1.6 | 0.00 | 0.00 | 0.00 | 91 | 1018.1 |
| 20260901083927 | 23 | 5 | 0.0 | 0.0 | 0.00 | 0.00 | 0.00 | 91 | 1018.1 |
| 20260901083835 | 23 | 5 | 0.0 | 0.0 | 0.00 | 0.00 | 0.00 | 91 | 1018.1 |
| 20260901083723 | 23 | 5 | 0.0 | 1.6 | 0.00 | 0.00 | 0.00 | 91 | 1018.1 |
| 20260901083631 | 23 | 5 | 0.0 | 1.6 | 0.00 | 0.00 | 0.00 | 91 | 1018.1 |
| 20260901083521 | 23 | 5 | 0.0 | 1.6 | 0.00 | 0.00 | 0.00 | 91 | 1018.0 |
| 20260901083448 | 23 | 5 | 0.0 | 1.6 | 0.00 | 0.00 | 0.00 | 91 | 1018.1 |
| 20260901083419 | 23 | 5 | 0.0 | 1.6 | 0.00 | 0.00 | 0.00 | 90 | 1018.1 |
| 20260901083130 | 23 | 5 | 0.0 | 1.6 | 0.00 | 0.00 | 0.00 | 90 | 1018.1 |
| 20260901083039 | 23 | 5 | 0.0 | 1.6 | 0.00 | 0.00 | 0.00 | 90 | 1018.1 |
| 20260901082930 | 23 | 5 | 0.0 | 1.6 | 0.00 | 0.00 | 0.00 | 90 | 1018.0 |
| 20260901082837 | 23 | 5 | 0.0 | 1.6 | 0.00 | 0.00 | 0.00 | 90 | 1018.0 |
| 20260901082725 | 23 | 5 | 0.0 | 1.6 | 0.00 | 0.00 | 0.00 | 91 | 1018.1 |
| 20260901082634 | 23 | 5 | 0.0 | 0.0 | 0.00 | 0.00 | 0.00 | 91 | 1018.1 |
| 20260901082521 | 23 | 5 | 0.0 | 0.0 | 0.00 | 0.00 | 0.00 | 91 | 1018.0 |
| 20260901082434 | 23 | 5 | 0.0 | 1.6 | 0.00 | 0.00 | 0.00 | 91 | 1018.1 |
| 20260901082321 | 23 | 5 | 0.0 | 3.2 | 0.00 | 0.00 | 0.00 | 91 | 1018.0 |
| 20260901082228 | 23 | 5 | 0.0 | 3.2 | 0.00 | 0.00 | 0.00 | 91 | 1018.1 |
| 20260901082136 | 23 | 5 | 0.0 | 3.2 | 0.00 | 0.00 | 0.00 | 91 | 1018.0 |
| 20260901082023 | 23 | 5 | 0.0 | 3.2 | 0.00 | 0.00 | 0.00 | 91 | 1018.0 |
| 20260901081906 | 23 | 5 | 0.0 | 3.2 | 0.00 | 0.00 | 0.00 | 91 | 1018.0 |
| 20260901081638 | 23 | 5 | 0.0 | 3.2 | 0.00 | 0.00 | 0.00 | 91 | 1018.0 |
| 20260901081526 | 23 | 5 | 1.6 | 3.2 | 0.00 | 0.00 | 0.00 | 90 | 1018.0 |
| 20260901081433 | 23 | 5 | 1.6 | 3.2 | 0.00 | 0.00 | 0.00 | 90 | 1018.1 |
| 20260901081324 | 23 | 5 | 0.0 | 1.6 | 0.00 | 0.00 | 0.00 | 91 | 1018.1 |
| 20260901081230 | 23 | 5 | 0.0 | 0.0 | 0.00 | 0.00 | 0.00 | 91 | 1018.1 |
| 20260901081138 | 23 | 5 | 0.0 | 0.0 | 0.00 | 0.00 | 0.00 | 91 | 1018.1 |
| 20260901081025 | 23 | 5 | 0.0 | 0.0 | 0.00 | 0.00 | 0.00 | 91 | 1018.0 |
| 20260901080932 | 23 | 5 | 0.0 | 0.0 | 0.00 | 0.00 | 0.00 | 91 | 1018.0 |
| 20260901080824 | 23 | 5 | 0.0 | 0.0 | 0.00 | 0.00 | 0.00 | 91 | 1018.1 |
| 20260901080731 | 23 | 5 | 0.0 | 1.6 | 0.00 | 0.00 | 0.00 | 91 | 1018.1 |
| 20260901080638 | 23 | 5 | 0.0 | 1.6 | 0.00 | 0.00 | 0.00 | 91 | 1018.0 |
| 20260901080544 | 23 | 5 | 0.0 | 1.6 | 0.00 | 0.00 | 0.00 | 91 | 1018.1 |
| 20260901080404 | 23 | 5 | 0.0 | 1.6 | 0.00 | 0.00 | 0.00 | 90 | 1018.0 |
| 20260901080138 | 23 | 5 | 0.0 | 1.6 | 0.00 | 0.00 | 0.00 | 90 | 1018.0 |
| 20260901080045 | 23 | 5 | 0.0 | 1.6 | 0.00 | 0.00 | 0.00 | 90 | 1018.1 |
| 20260901075931 | 23 | 5 | 1.6 | 1.6 | 0.00 | 0.00 | 0.00 | 90 | 1018.0 |
| 20260901075839 | 23 | 5 | 0.0 | 1.6 | 0.00 | 0.00 | 0.00 | 90 | 1017.9 |
| 20260901075727 | 23 | 5 | 0.0 | 1.6 | 0.00 | 0.00 | 0.00 | 89 | 1017.9 |
| 20260901075620 | 23 | 5 | 0.0 | 1.6 | 0.00 | 0.00 | 0.00 | 89 | 1018.0 |
| 20260901075527 | 23 | 5 | 0.0 | 3.2 | 0.00 | 0.00 | 0.00 | 89 | 1018.0 |
| 20260901075435 | 23 | 5 | 0.0 | 3.2 | 0.00 | 0.00 | 0.00 | 88 | 1018.0 |
| 20260901075323 | 23 | 5 | 1.6 | 3.2 | 0.00 | 0.00 | 0.00 | 89 | 1018.0 |
| 20260901075230 | 23 | 5 | 1.6 | 3.2 | 0.00 | 0.00 | 0.00 | 89 | 1018.0 |
| 20260901075157 | 23 | 5 | 1.6 | 3.2 | 0.00 | 0.00 | 0.00 | 89 | 1017.9 |
| 20260901075027 | 23 | 5 | 1.6 | 3.2 | 0.00 | 0.00 | 0.00 | 89 | 1018.0 |
| 20260901074934 | 23 | 5 | 1.6 | 3.2 | 0.00 | 0.00 | 0.00 | 89 | 1018.0 |
| 20260901074904 | 23 | 5 | 1.6 | 3.2 | 0.00 | 0.00 | 0.00 | 88 | 1018.0 |
| 20260901074637 | 23 | 5 | 1.6 | 3.2 | 0.00 | 0.00 | 0.00 | 88 | 1018.0 |
| 20260901074544 | 23 | 5 | 1.6 | 3.2 | 0.00 | 0.00 | 0.00 | 88 | 1018.0 |
| 20260901074436 | 23 | 5 | 1.6 | 3.2 | 0.00 | 0.00 | 0.00 | 88 | 1018.0 |
| 20260901074324 | 23 | 5 | 1.6 | 3.2 | 0.00 | 0.00 | 0.00 | 88 | 1018.0 |
| 20260901074232 | 23 | 5 | 1.6 | 3.2 | 0.00 | 0.00 | 0.00 | 88 | 1018.0 |
| 20260901074139 | 23 | 5 | 1.6 | 3.2 | 0.00 | 0.00 | 0.00 | 88 | 1017.9 |
| 20260901074027 | 23 | 5 | 1.6 | 3.2 | 0.00 | 0.00 | 0.00 | 88 | 1018.0 |
| 20260901073939 | 23 | 5 | 1.6 | 3.2 | 0.00 | 0.00 | 0.00 | 88 | 1018.0 |
| 20260901073826 | 23 | 5 | 3.2 | 4.8 | 0.00 | 0.00 | 0.00 | 88 | 1018.0 |
| 20260901073735 | 23 | 5 | 3.2 | 4.8 | 0.00 | 0.00 | 0.00 | 88 | 1018.0 |
| 20260901073623 | 23 | 5 | 3.2 | 4.8 | 0.00 | 0.00 | 0.00 | 88 | 1017.9 |
| 20260901073531 | 23 | 5 | 1.6 | 4.8 | 0.00 | 0.00 | 0.00 | 88 | 1018.0 |
| 20260901073422 | 23 | 5 | 3.2 | 4.8 | 0.00 | 0.00 | 0.00 | 89 | 1018.0 |
| 20260901073354 | 23 | 5 | 3.2 | 4.8 | 0.00 | 0.00 | 0.00 | 89 | 1018.0 |
| 20260901073128 | 23 | 5 | 3.2 | 4.8 | 0.00 | 0.00 | 0.00 | 89 | 1018.0 |
| 20260901073036 | 23 | 5 | 3.2 | 4.8 | 0.00 | 0.00 | 0.00 | 89 | 1018.0 |
| 20260901072924 | 23 | 5 | 3.2 | 4.8 | 0.00 | 0.00 | 0.00 | 89 | 1018.0 |
| 20260901072856 | 23 | 5 | 3.2 | 4.8 | 0.00 | 0.00 | 0.00 | 89 | 1018.0 |
| 20260901072721 | 23 | 5 | 3.2 | 4.8 | 0.00 | 0.00 | 0.00 | 89 | 1018.0 |
| 20260901072629 | 23 | 5 | 3.2 | 4.8 | 0.00 | 0.00 | 0.00 | 89 | 1018.0 |
| 20260901072538 | 23 | 5 | 3.2 | 4.8 | 0.00 | 0.00 | 0.00 | 89 | 1017.9 |
| 20260901072425 | 23 | 5 | 3.2 | 4.8 | 0.00 | 0.00 | 0.00 | 89 | 1018.0 |
| 20260901072353 | 23 | 5 | 3.2 | 4.8 | 0.00 | 0.00 | 0.00 | 88 | 1017.9 |
| 20260901072222 | 23 | 5 | 3.2 | 4.8 | 0.00 | 0.00 | 0.00 | 88 | 1018.0 |
| 20260901072130 | 23 | 5 | 3.2 | 4.8 | 0.00 | 0.00 | 0.00 | 88 | 1017.9 |
| 20260901072058 | 23 | 5 | 3.2 | 4.8 | 0.00 | 0.00 | 0.00 | 88 | 1018.0 |
| 20260901072005 | 23 | 5 | 3.2 | 4.8 | 0.00 | 0.00 | 0.00 | 88 | 1018.0 |
| 20260901071914 | 23 | 5 | 3.2 | 4.8 | 0.00 | 0.00 | 0.00 | 88 | 1018.0 |
| 20260901071630 | 23 | 5 | 3.2 | 4.8 | 0.00 | 0.00 | 0.00 | 88 | 1017.9 |
| 20260901071537 | 23 | 5 | 1.6 | 4.8 | 0.00 | 0.00 | 0.00 | 88 | 1018.0 |
| 20260901071426 | 23 | 5 | 0.0 | 1.6 | 0.00 | 0.00 | 0.00 | 88 | 1018.0 |
| 20260901071333 | 23 | 5 | 0.0 | 1.6 | 0.00 | 0.00 | 0.00 | 88 | 1017.9 |
| 20260901071221 | 23 | 5 | 0.0 | 1.6 | 0.00 | 0.00 | 0.00 | 88 | 1018.0 |
| 20260901071129 | 23 | 5 | 0.0 | 3.2 | 0.00 | 0.00 | 0.00 | 88 | 1018.0 |
| 20260901071021 | 23 | 5 | 0.0 | 3.2 | 0.00 | 0.00 | 0.00 | 88 | 1018.1 |
| 20260901070949 | 23 | 5 | 0.0 | 3.2 | 0.00 | 0.00 | 0.00 | 88 | 1017.9 |
| 20260901070834 | 23 | 5 | 0.0 | 3.2 | 0.00 | 0.00 | 0.00 | 88 | 1017.9 |
| 20260901070721 | 23 | 5 | 1.6 | 3.2 | 0.00 | 0.00 | 0.00 | 88 | 1018.0 |
| 20260901070629 | 23 | 5 | 0.0 | 3.2 | 0.00 | 0.00 | 0.00 | 88 | 1018.0 |
| 20260901070520 | 23 | 5 | 1.6 | 3.2 | 0.00 | 0.00 | 0.00 | 88 | 1018.0 |
| 20260901070449 | 23 | 5 | 1.6 | 3.2 | 0.00 | 0.00 | 0.00 | 88 | 1018.1 |
| 20260901070420 | 23 | 5 | 1.6 | 3.2 | 0.00 | 0.00 | 0.00 | 88 | 1018.1 |
| 20260901070153 | 23 | 5 | 0.0 | 1.6 | 0.00 | 0.00 | 0.00 | 88 | 1018.0 |
| 20260901070040 | 23 | 5 | 0.0 | 1.6 | 0.00 | 0.00 | 0.00 | 88 | 1018.1 |
| 20260901065925 | 23 | 5 | 0.0 | 1.6 | 0.00 | 0.00 | 0.00 | 89 | 1018.0 |
| 20260901065838 | 23 | 5 | 0.0 | 1.6 | 0.00 | 0.00 | 0.00 | 89 | 1018.0 |
| 20260901065727 | 23 | 5 | 0.0 | 1.6 | 0.00 | 0.00 | 0.00 | 89 | 1018.0 |
| 20260901065634 | 23 | 5 | 0.0 | 1.6 | 0.00 | 0.00 | 0.00 | 89 | 1018.1 |
| 20260901065522 | 23 | 5 | 0.0 | 1.6 | 0.00 | 0.00 | 0.00 | 89 | 1018.1 |
| 20260901065427 | 23 | 5 | 0.0 | 1.6 | 0.00 | 0.00 | 0.00 | 89 | 1018.0 |
| 20260901065320 | 23 | 5 | 1.6 | 1.6 | 0.00 | 0.00 | 0.00 | 89 | 1018.0 |
| 20260901065227 | 23 | 5 | 1.6 | 1.6 | 0.00 | 0.00 | 0.00 | 89 | 1018.0 |
| 20260901065134 | 23 | 5 | 0.0 | 1.6 | 0.00 | 0.00 | 0.00 | 88 | 1018.1 |
| 20260901065021 | 23 | 5 | 0.0 | 1.6 | 0.00 | 0.00 | 0.00 | 88 | 1018.0 |
| 20260901064928 | 23 | 5 | 0.0 | 1.6 | 0.00 | 0.00 | 0.00 | 88 | 1018.1 |
| 20260901064903 | 23 | 5 | 0.0 | 1.6 | 0.00 | 0.00 | 0.00 | 88 | 1018.1 |
| 20260901064636 | 23 | 5 | 0.0 | 1.6 | 0.00 | 0.00 | 0.00 | 87 | 1018.0 |
| 20260901064524 | 23 | 5 | 0.0 | 1.6 | 0.00 | 0.00 | 0.00 | 88 | 1018.1 |
| 20260901064432 | 23 | 5 | 0.0 | 3.2 | 0.00 | 0.00 | 0.00 | 88 | 1018.1 |
| 20260901064338 | 24 | 5 | 0.0 | 3.2 | 0.00 | 0.00 | 0.00 | 88 | 1018.0 |
| 20260901064225 | 24 | 5 | 0.0 | 3.2 | 0.00 | 0.00 | 0.00 | 89 | 1018.0 |
| 20260901064131 | 24 | 5 | 0.0 | 3.2 | 0.00 | 0.00 | 0.00 | 89 | 1018.1 |
| 20260901064022 | 24 | 5 | 0.0 | 4.8 | 0.00 | 0.00 | 0.00 | 89 | 1018.0 |
| 20260901063930 | 24 | 5 | 0.0 | 4.8 | 0.00 | 0.00 | 0.00 | 89 | 1018.1 |
| 20260901063858 | 24 | 5 | 0.0 | 4.8 | 0.00 | 0.00 | 0.00 | 89 | 1018.0 |
| 20260901063742 | 24 | 5 | 1.6 | 4.8 | 0.00 | 0.00 | 0.00 | 88 | 1018.1 |
| 20260901063629 | 24 | 5 | 1.6 | 4.8 | 0.00 | 0.00 | 0.00 | 88 | 1018.1 |
| 20260901063557 | 24 | 5 | 3.2 | 4.8 | 0.00 | 0.00 | 0.00 | 88 | 1018.1 |
| 20260901063443 | 24 | 5 | 3.2 | 4.8 | 0.00 | 0.00 | 0.00 | 88 | 1018.1 |
| 20260901063356 | 24 | 5 | 3.2 | 4.8 | 0.00 | 0.00 | 0.00 | 87 | 1018.1 |
| 20260901063150 | 24 | 5 | 3.2 | 4.8 | 0.00 | 0.00 | 0.00 | 87 | 1018.2 |
| 20260901063056 | 24 | 5 | 1.6 | 4.8 | 0.00 | 0.00 | 0.00 | 87 | 1018.0 |
| 20260901062921 | 24 | 5 | 1.6 | 3.2 | 0.00 | 0.00 | 0.00 | 88 | 1018.1 |
| 20260901062828 | 24 | 5 | 1.6 | 1.6 | 0.00 | 0.00 | 0.00 | 89 | 1018.1 |
| 20260901062736 | 24 | 5 | 1.6 | 1.6 | 0.00 | 0.00 | 0.00 | 89 | 1018.1 |
| 20260901062628 | 24 | 5 | 0.0 | 1.6 | 0.00 | 0.00 | 0.00 | 89 | 1018.1 |
| 20260901062535 | 24 | 5 | 0.0 | 1.6 | 0.00 | 0.00 | 0.00 | 89 | 1018.1 |
| 20260901062422 | 24 | 5 | 0.0 | 1.6 | 0.00 | 0.00 | 0.00 | 89 | 1018.1 |
| 20260901062329 | 24 | 5 | 0.0 | 1.6 | 0.00 | 0.00 | 0.00 | 89 | 1018.1 |
| 20260901062238 | 24 | 5 | 0.0 | 1.6 | 0.00 | 0.00 | 0.00 | 89 | 1018.1 |
| 20260901062149 | 24 | 5 | 0.0 | 1.6 | 0.00 | 0.00 | 0.00 | 89 | 1018.1 |
| 20260901062035 | 24 | 5 | 0.0 | 1.6 | 0.00 | 0.00 | 0.00 | 89 | 1018.2 |
| 20260901061943 | 24 | 5 | 0.0 | 1.6 | 0.00 | 0.00 | 0.00 | 89 | 1018.2 |
| 20260901061913 | 24 | 5 | 0.0 | 1.6 | 0.00 | 0.00 | 0.00 | 88 | 1018.2 |
| 20260901061625 | 24 | 5 | 0.0 | 1.6 | 0.00 | 0.00 | 0.00 | 88 | 1018.3 |
| 20260901061537 | 24 | 5 | 0.0 | 1.6 | 0.00 | 0.00 | 0.00 | 88 | 1018.1 |
| 20260901061424 | 24 | 5 | 0.0 | 1.6 | 0.00 | 0.00 | 0.00 | 88 | 1018.2 |
| 20260901061332 | 24 | 5 | 0.0 | 1.6 | 0.00 | 0.00 | 0.00 | 88 | 1018.3 |
| 20260901061239 | 24 | 5 | 0.0 | 1.6 | 0.00 | 0.00 | 0.00 | 88 | 1018.1 |
| 20260901061127 | 24 | 5 | 0.0 | 1.6 | 0.00 | 0.00 | 0.00 | 88 | 1018.2 |
| 20260901061039 | 24 | 5 | 0.0 | 1.6 | 0.00 | 0.00 | 0.00 | 88 | 1018.2 |
| 20260901060925 | 24 | 5 | 0.0 | 1.6 | 0.00 | 0.00 | 0.00 | 88 | 1018.3 |
| 20260901060833 | 24 | 5 | 0.0 | 1.6 | 0.00 | 0.00 | 0.00 | 88 | 1018.2 |
| 20260901060721 | 24 | 5 | 1.6 | 1.6 | 0.00 | 0.00 | 0.00 | 88 | 1018.2 |
| 20260901060627 | 24 | 5 | 0.0 | 1.6 | 0.00 | 0.00 | 0.00 | 88 | 1018.3 |
| 20260901060555 | 24 | 5 | 0.0 | 1.6 | 0.00 | 0.00 | 0.00 | 88 | 1018.3 |
| 20260901060425 | 24 | 5 | 0.0 | 1.6 | 0.00 | 0.00 | 0.00 | 88 | 1018.3 |
| 20260901060356 | 24 | 5 | 0.0 | 3.2 | 0.00 | 0.00 | 0.00 | 87 | 1018.3 |
| 20260901060129 | 24 | 5 | 0.0 | 3.2 | 0.00 | 0.00 | 0.00 | 87 | 1018.2 |
| 20260901060037 | 24 | 5 | 0.0 | 3.2 | 0.00 | 0.00 | 0.00 | 87 | 1018.3 |
| 20260901055928 | 24 | 5 | 0.0 | 3.2 | 0.00 | 0.00 | 0.00 | 86 | 1018.3 |
| 20260901055834 | 24 | 5 | 0.0 | 3.2 | 0.00 | 0.00 | 0.00 | 87 | 1018.3 |
| 20260901055722 | 24 | 5 | 1.6 | 3.2 | 0.00 | 0.00 | 0.00 | 87 | 1018.3 |
| 20260901055629 | 24 | 5 | 1.6 | 3.2 | 0.00 | 0.00 | 0.00 | 87 | 1018.3 |
| 20260901055556 | 24 | 5 | 1.6 | 3.2 | 0.00 | 0.00 | 0.00 | 87 | 1018.3 |
| 20260901055423 | 24 | 5 | 1.6 | 3.2 | 0.00 | 0.00 | 0.00 | 88 | 1018.3 |
| 20260901055335 | 24 | 5 | 1.6 | 3.2 | 0.00 | 0.00 | 0.00 | 88 | 1018.3 |
| 20260901055222 | 24 | 5 | 1.6 | 3.2 | 0.00 | 0.00 | 0.00 | 87 | 1018.2 |
| 20260901055130 | 24 | 5 | 1.6 | 3.2 | 0.00 | 0.00 | 0.00 | 88 | 1018.3 |
| 20260901055036 | 24 | 5 | 1.6 | 3.2 | 0.00 | 0.00 | 0.00 | 87 | 1018.2 |
| 20260901054943 | 24 | 5 | 1.6 | 3.2 | 0.00 | 0.00 | 0.00 | 87 | 1018.2 |
| 20260901054918 | 24 | 5 | 1.6 | 3.2 | 0.00 | 0.00 | 0.00 | 87 | 1018.2 |
| 20260901054632 | 24 | 5 | 1.6 | 3.2 | 0.00 | 0.00 | 0.00 | 87 | 1018.2 |
| 20260901054539 | 24 | 5 | 1.6 | 3.2 | 0.00 | 0.00 | 0.00 | 88 | 1018.2 |
| 20260901054426 | 24 | 5 | 3.2 | 3.2 | 0.00 | 0.00 | 0.00 | 88 | 1018.1 |
| 20260901054333 | 24 | 5 | 1.6 | 3.2 | 0.00 | 0.00 | 0.00 | 88 | 1018.3 |
| 20260901054300 | 24 | 5 | 1.6 | 3.2 | 0.00 | 0.00 | 0.00 | 88 | 1018.3 |
| 20260901054130 | 24 | 5 | 0.0 | 3.2 | 0.00 | 0.00 | 0.00 | 88 | 1018.3 |
| 20260901054037 | 24 | 5 | 0.0 | 3.2 | 0.00 | 0.00 | 0.00 | 88 | 1018.3 |
| 20260901053924 | 24 | 5 | 0.0 | 4.8 | 0.00 | 0.00 | 0.00 | 88 | 1018.4 |
| 20260901053832 | 24 | 5 | 0.0 | 4.8 | 0.00 | 0.00 | 0.00 | 88 | 1018.3 |
| 20260901053739 | 24 | 5 | 0.0 | 4.8 | 0.00 | 0.00 | 0.00 | 88 | 1018.3 |
| 20260901053631 | 24 | 5 | 1.6 | 4.8 | 0.00 | 0.00 | 0.00 | 88 | 1018.3 |
| 20260901053538 | 24 | 5 | 1.6 | 4.8 | 0.00 | 0.00 | 0.00 | 87 | 1018.3 |
| 20260901053426 | 24 | 5 | 3.2 | 4.8 | 0.00 | 0.00 | 0.00 | 87 | 1018.4 |
| 20260901053356 | 24 | 5 | 3.2 | 4.8 | 0.00 | 0.00 | 0.00 | 87 | 1018.4 |
| 20260901053129 | 24 | 5 | 3.2 | 4.8 | 0.00 | 0.00 | 0.00 | 87 | 1018.4 |
| 20260901053022 | 24 | 5 | 3.2 | 4.8 | 0.00 | 0.00 | 0.00 | 87 | 1018.3 |
| 20260901052930 | 24 | 5 | 3.2 | 4.8 | 0.00 | 0.00 | 0.00 | 87 | 1018.4 |
| 20260901052837 | 24 | 5 | 3.2 | 4.8 | 0.00 | 0.00 | 0.00 | 87 | 1018.4 |
| 20260901052725 | 25 | 5 | 3.2 | 4.8 | 0.00 | 0.00 | 0.00 | 87 | 1018.3 |
| 20260901052633 | 25 | 5 | 3.2 | 4.8 | 0.00 | 0.00 | 0.00 | 87 | 1018.3 |
| 20260901052524 | 25 | 5 | 3.2 | 4.8 | 0.00 | 0.00 | 0.00 | 87 | 1018.4 |
| 20260901052432 | 25 | 5 | 3.2 | 4.8 | 0.00 | 0.00 | 0.00 | 87 | 1018.3 |
| 20260901052340 | 25 | 5 | 3.2 | 4.8 | 0.00 | 0.00 | 0.00 | 87 | 1018.4 |
| 20260901052227 | 25 | 5 | 3.2 | 4.8 | 0.00 | 0.00 | 0.00 | 87 | 1018.4 |
| 20260901052134 | 25 | 5 | 3.2 | 4.8 | 0.00 | 0.00 | 0.00 | 87 | 1018.4 |
| 20260901052024 | 25 | 5 | 3.2 | 4.8 | 0.00 | 0.00 | 0.00 | 87 | 1018.4 |
| 20260901051930 | 25 | 5 | 3.2 | 4.8 | 0.00 | 0.00 | 0.00 | 87 | 1018.4 |
| 20260901051900 | 25 | 5 | 3.2 | 4.8 | 0.00 | 0.00 | 0.00 | 87 | 1018.4 |
| 20260901051633 | 25 | 5 | 1.6 | 4.8 | 0.00 | 0.00 | 0.00 | 87 | 1018.4 |
| 20260901051521 | 25 | 5 | 3.2 | 4.8 | 0.00 | 0.00 | 0.00 | 87 | 1018.4 |
| 20260901051451 | 25 | 5 | 3.2 | 4.8 | 0.00 | 0.00 | 0.00 | 87 | 1018.4 |
| 20260901051338 | 25 | 5 | 3.2 | 4.8 | 0.00 | 0.00 | 0.00 | 87 | 1018.4 |
| 20260901051223 | 25 | 5 | 3.2 | 4.8 | 0.00 | 0.00 | 0.00 | 87 | 1018.3 |
| 20260901051131 | 25 | 5 | 3.2 | 4.8 | 0.00 | 0.00 | 0.00 | 87 | 1018.4 |
| 20260901051038 | 25 | 5 | 4.8 | 4.8 | 0.00 | 0.00 | 0.00 | 87 | 1018.3 |
| 20260901050926 | 25 | 5 | 3.2 | 4.8 | 0.00 | 0.00 | 0.00 | 87 | 1018.4 |
| 20260901050838 | 25 | 5 | 3.2 | 4.8 | 0.00 | 0.00 | 0.00 | 87 | 1018.3 |
| 20260901050726 | 25 | 5 | 3.2 | 4.8 | 0.00 | 0.00 | 0.00 | 87 | 1018.3 |
| 20260901050633 | 25 | 5 | 3.2 | 4.8 | 0.00 | 0.00 | 0.00 | 87 | 1018.3 |
| 20260901050521 | 25 | 5 | 3.2 | 4.8 | 0.00 | 0.00 | 0.00 | 86 | 1018.3 |
| 20260901050428 | 25 | 5 | 3.2 | 4.8 | 0.00 | 0.00 | 0.00 | 86 | 1018.3 |
| 20260901050403 | 25 | 5 | 3.2 | 4.8 | 0.00 | 0.00 | 0.00 | 86 | 1018.3 |
| 20260901050136 | 25 | 5 | 3.2 | 4.8 | 0.00 | 0.00 | 0.00 | 86 | 1018.4 |
| 20260901050024 | 25 | 5 | 3.2 | 4.8 | 0.00 | 0.00 | 0.00 | 86 | 1018.3 |
| 20260901045932 | 25 | 5 | 3.2 | 4.8 | 0.00 | 0.00 | 0.00 | 86 | 1018.3 |
| 20260901045824 | 25 | 5 | 1.6 | 3.2 | 0.00 | 0.00 | 0.00 | 86 | 1018.2 |
| 20260901045731 | 25 | 5 | 1.6 | 3.2 | 0.00 | 0.00 | 0.00 | 87 | 1018.3 |
| 20260901045638 | 25 | 5 | 1.6 | 3.2 | 0.00 | 0.00 | 0.00 | 87 | 1018.3 |
| 20260901045526 | 25 | 5 | 1.6 | 3.2 | 0.00 | 0.00 | 0.00 | 87 | 1018.3 |
| 20260901045433 | 25 | 5 | 1.6 | 3.2 | 0.00 | 0.00 | 0.00 | 87 | 1018.3 |
| 20260901045320 | 25 | 5 | 1.6 | 3.2 | 0.00 | 0.00 | 0.00 | 87 | 1018.3 |
| 20260901045231 | 25 | 5 | 1.6 | 3.2 | 0.00 | 0.00 | 0.00 | 86 | 1018.3 |
| 20260901045139 | 25 | 5 | 1.6 | 3.2 | 0.00 | 0.00 | 0.00 | 86 | 1018.3 |
| 20260901045027 | 25 | 5 | 3.2 | 3.2 | 0.00 | 0.00 | 0.00 | 86 | 1018.3 |
| 20260901044953 | 25 | 5 | 1.6 | 3.2 | 0.00 | 0.00 | 0.00 | 86 | 1018.2 |
| 20260901044906 | 25 | 5 | 1.6 | 3.2 | 0.00 | 0.00 | 0.00 | 86 | 1018.2 |
| 20260901044623 | 25 | 5 | 1.6 | 3.2 | 0.00 | 0.00 | 0.00 | 87 | 1018.2 |
| 20260901044531 | 25 | 5 | 0.0 | 3.2 | 0.00 | 0.00 | 0.00 | 87 | 1018.3 |
| 20260901044439 | 25 | 5 | 0.0 | 1.6 | 0.00 | 0.00 | 0.00 | 87 | 1018.2 |
| 20260901044348 | 25 | 5 | 0.0 | 1.6 | 0.00 | 0.00 | 0.00 | 87 | 1018.3 |
| 20260901044233 | 25 | 5 | 0.0 | 1.6 | 0.00 | 0.00 | 0.00 | 87 | 1018.2 |
| 20260901044123 | 25 | 5 | 0.0 | 1.6 | 0.00 | 0.00 | 0.00 | 87 | 1018.2 |
| 20260901044031 | 25 | 5 | 0.0 | 1.6 | 0.00 | 0.00 | 0.00 | 87 | 1018.2 |
| 20260901043939 | 25 | 5 | 0.0 | 1.6 | 0.00 | 0.00 | 0.00 | 87 | 1018.2 |
| 20260901043827 | 25 | 5 | 0.0 | 1.6 | 0.00 | 0.00 | 0.00 | 87 | 1018.2 |
| 20260901043735 | 25 | 5 | 0.0 | 1.6 | 0.00 | 0.00 | 0.00 | 87 | 1018.1 |
| 20260901043643 | 25 | 5 | 1.6 | 3.2 | 0.00 | 0.00 | 0.00 | 87 | 1018.2 |
| 20260901043550 | 25 | 5 | 1.6 | 3.2 | 0.00 | 0.00 | 0.00 | 87 | 1018.2 |
| 20260901043440 | 25 | 5 | 1.6 | 3.2 | 0.00 | 0.00 | 0.00 | 87 | 1018.2 |
| 20260901043409 | 25 | 5 | 1.6 | 3.2 | 0.00 | 0.00 | 0.00 | 87 | 1018.2 |
| 20260901043143 | 25 | 5 | 1.6 | 3.2 | 0.00 | 0.00 | 0.00 | 87 | 1018.2 |
| 20260901043028 | 25 | 5 | 1.6 | 3.2 | 0.00 | 0.00 | 0.00 | 87 | 1018.2 |
| 20260901042920 | 25 | 5 | 1.6 | 3.2 | 0.00 | 0.00 | 0.00 | 87 | 1018.2 |
| 20260901042828 | 25 | 5 | 1.6 | 3.2 | 0.00 | 0.00 | 0.00 | 87 | 1018.2 |
| 20260901042734 | 25 | 5 | 1.6 | 3.2 | 0.00 | 0.00 | 0.00 | 86 | 1018.1 |
| 20260901042622 | 25 | 5 | 3.2 | 3.2 | 0.00 | 0.00 | 0.00 | 86 | 1018.2 |
| 20260901042529 | 25 | 5 | 3.2 | 3.2 | 0.00 | 0.00 | 0.00 | 86 | 1018.2 |
| 20260901042436 | 25 | 5 | 3.2 | 3.2 | 0.00 | 0.00 | 0.00 | 85 | 1018.2 |
| 20260901042347 | 25 | 5 | 3.2 | 3.2 | 0.00 | 0.00 | 0.00 | 85 | 1018.3 |
| 20260901042234 | 25 | 5 | 3.2 | 3.2 | 0.00 | 0.00 | 0.00 | 85 | 1018.2 |
| 20260901042121 | 25 | 5 | 3.2 | 3.2 | 0.00 | 0.00 | 0.00 | 84 | 1018.2 |
| 20260901042029 | 25 | 5 | 3.2 | 3.2 | 0.00 | 0.00 | 0.00 | 84 | 1018.2 |
| 20260901041935 | 25 | 5 | 3.2 | 3.2 | 0.00 | 0.00 | 0.00 | 84 | 1018.2 |
| 20260901041909 | 25 | 5 | 1.6 | 3.2 | 0.00 | 0.00 | 0.00 | 84 | 1018.2 |
| 20260901041622 | 25 | 5 | 1.6 | 3.2 | 0.00 | 0.00 | 0.00 | 84 | 1018.2 |
| 20260901041530 | 25 | 5 | 1.6 | 3.2 | 0.00 | 0.00 | 0.00 | 84 | 1018.2 |
| 20260901041437 | 25 | 5 | 1.6 | 3.2 | 0.00 | 0.00 | 0.00 | 84 | 1018.2 |
| 20260901041324 | 25 | 5 | 1.6 | 3.2 | 0.00 | 0.00 | 0.00 | 84 | 1018.3 |
| 20260901041235 | 25 | 5 | 1.6 | 3.2 | 0.00 | 0.00 | 0.00 | 84 | 1018.2 |
| 20260901041121 | 25 | 5 | 1.6 | 3.2 | 0.00 | 0.00 | 0.00 | 84 | 1018.2 |
| 20260901041049 | 25 | 5 | 0.0 | 1.6 | 0.00 | 0.00 | 0.00 | 85 | 1018.2 |
| 20260901040935 | 25 | 5 | 1.6 | 1.6 | 0.00 | 0.00 | 0.00 | 85 | 1018.2 |
| 20260901040843 | 25 | 5 | 0.0 | 1.6 | 0.00 | 0.00 | 0.00 | 85 | 1018.2 |
| 20260901040728 | 25 | 5 | 0.0 | 0.0 | 0.00 | 0.00 | 0.00 | 86 | 1018.2 |
| 20260901040635 | 25 | 5 | 0.0 | 1.6 | 0.00 | 0.00 | 0.00 | 86 | 1018.2 |
| 20260901040548 | 25 | 5 | 0.0 | 1.6 | 0.00 | 0.00 | 0.00 | 86 | 1018.2 |
| 20260901040515 | 25 | 5 | 0.0 | 1.6 | 0.00 | 0.00 | 0.00 | 86 | 1018.2 |
| 20260901040424 | 25 | 5 | 0.0 | 1.6 | 0.00 | 0.00 | 0.00 | 86 | 1018.1 |
| 20260901040137 | 25 | 5 | 0.0 | 1.6 | 0.00 | 0.00 | 0.00 | 86 | 1018.3 |
| 20260901040026 | 25 | 5 | 0.0 | 1.6 | 0.00 | 0.00 | 0.00 | 86 | 1018.2 |
| 20260901035936 | 25 | 5 | 0.0 | 1.6 | 0.00 | 0.00 | 0.00 | 86 | 1018.2 |
| 20260901035825 | 25 | 5 | 0.0 | 1.6 | 0.00 | 0.00 | 0.00 | 85 | 1018.2 |
| 20260901035733 | 25 | 5 | 0.0 | 1.6 | 0.00 | 0.00 | 0.00 | 85 | 1018.2 |
| 20260901035640 | 25 | 5 | 0.0 | 1.6 | 0.00 | 0.00 | 0.00 | 85 | 1018.3 |
| 20260901035527 | 25 | 5 | 0.0 | 1.6 | 0.00 | 0.00 | 0.00 | 85 | 1018.3 |
| 20260901035435 | 25 | 5 | 0.0 | 1.6 | 0.00 | 0.00 | 0.00 | 86 | 1018.2 |
| 20260901035347 | 25 | 5 | 0.0 | 1.6 | 0.00 | 0.00 | 0.00 | 85 | 1018.3 |
| 20260901035235 | 25 | 5 | 0.0 | 0.0 | 0.00 | 0.00 | 0.00 | 85 | 1018.2 |
| 20260901035142 | 25 | 5 | 0.0 | 0.0 | 0.00 | 0.00 | 0.00 | 85 | 1018.2 |
| 20260901035030 | 25 | 5 | 0.0 | 0.0 | 0.00 | 0.00 | 0.00 | 85 | 1018.2 |
| 20260901034910 | 25 | 5 | 0.0 | 0.0 | 0.00 | 0.00 | 0.00 | 85 | 1018.2 |
| 20260901034624 | 25 | 5 | 0.0 | 0.0 | 0.00 | 0.00 | 0.00 | 84 | 1018.2 |
| 20260901034532 | 25 | 5 | 0.0 | 0.0 | 0.00 | 0.00 | 0.00 | 84 | 1018.1 |
| 20260901034439 | 25 | 5 | 0.0 | 0.0 | 0.00 | 0.00 | 0.00 | 84 | 1018.2 |
| 20260901034326 | 25 | 5 | 0.0 | 0.0 | 0.00 | 0.00 | 0.00 | 84 | 1018.1 |
| 20260901034254 | 25 | 5 | 0.0 | 0.0 | 0.00 | 0.00 | 0.00 | 84 | 1018.1 |
| 20260901034124 | 25 | 5 | 0.0 | 0.0 | 0.00 | 0.00 | 0.00 | 84 | 1018.0 |
| 20260901034030 | 25 | 5 | 0.0 | 0.0 | 0.00 | 0.00 | 0.00 | 84 | 1018.1 |
| 20260901033938 | 25 | 5 | 0.0 | 0.0 | 0.00 | 0.00 | 0.00 | 84 | 1018.1 |
| 20260901033826 | 25 | 5 | 0.0 | 1.6 | 0.00 | 0.00 | 0.00 | 83 | 1018.1 |
| 20260901033734 | 25 | 5 | 0.0 | 1.6 | 0.00 | 0.00 | 0.00 | 83 | 1018.1 |
| 20260901033646 | 26 | 5 | 0.0 | 1.6 | 0.00 | 0.00 | 0.00 | 83 | 1018.1 |
| 20260901033532 | 26 | 5 | 0.0 | 1.6 | 0.00 | 0.00 | 0.00 | 83 | 1018.2 |
| 20260901033439 | 26 | 5 | 0.0 | 1.6 | 0.00 | 0.00 | 0.00 | 83 | 1018.2 |
| 20260901033409 | 26 | 5 | 0.0 | 1.6 | 0.00 | 0.00 | 0.00 | 82 | 1018.2 |
| 20260901033123 | 26 | 5 | 0.0 | 1.6 | 0.00 | 0.00 | 0.00 | 83 | 1018.3 |
| 20260901033034 | 26 | 5 | 0.0 | 1.6 | 0.00 | 0.00 | 0.00 | 83 | 1018.3 |
| 20260901032922 | 26 | 5 | 1.6 | 1.6 | 0.00 | 0.00 | 0.00 | 83 | 1018.2 |
| 20260901032829 | 26 | 5 | 1.6 | 1.6 | 0.00 | 0.00 | 0.00 | 83 | 1018.3 |
| 20260901032737 | 26 | 5 | 1.6 | 1.6 | 0.00 | 0.00 | 0.00 | 83 | 1018.3 |
| 20260901032624 | 26 | 5 | 1.6 | 1.6 | 0.00 | 0.00 | 0.00 | 83 | 1018.3 |
| 20260901032535 | 26 | 5 | 0.0 | 1.6 | 0.00 | 0.00 | 0.00 | 83 | 1018.4 |
| 20260901032422 | 26 | 5 | 0.0 | 0.0 | 0.00 | 0.00 | 0.00 | 83 | 1018.4 |
| 20260901032330 | 26 | 5 | 0.0 | 0.0 | 0.00 | 0.00 | 0.00 | 83 | 1018.3 |
| 20260901032238 | 26 | 5 | 0.0 | 0.0 | 0.00 | 0.00 | 0.00 | 83 | 1018.3 |
| 20260901032125 | 26 | 5 | 0.0 | 0.0 | 0.00 | 0.00 | 0.00 | 83 | 1018.3 |
| 20260901032032 | 26 | 5 | 0.0 | 0.0 | 0.00 | 0.00 | 0.00 | 83 | 1018.4 |
| 20260901032004 | 26 | 5 | 0.0 | 0.0 | 0.00 | 0.00 | 0.00 | 83 | 1018.4 |
| 20260901031934 | 26 | 5 | 0.0 | 0.0 | 0.00 | 0.00 | 0.00 | 83 | 1018.3 |
| 20260901031627 | 26 | 5 | 0.0 | 0.0 | 0.00 | 0.00 | 0.00 | 83 | 1018.2 |
| 20260901031535 | 26 | 5 | 0.0 | 0.0 | 0.00 | 0.00 | 0.00 | 83 | 1018.2 |
| 20260901031427 | 26 | 5 | 0.0 | 0.0 | 0.00 | 0.00 | 0.00 | 83 | 1018.2 |
| 20260901031334 | 26 | 5 | 0.0 | 0.0 | 0.00 | 0.00 | 0.00 | 83 | 1018.3 |
| 20260901031242 | 26 | 5 | 0.0 | 0.0 | 0.00 | 0.00 | 0.00 | 83 | 1018.3 |
| 20260901031128 | 26 | 5 | 0.0 | 0.0 | 0.00 | 0.00 | 0.00 | 83 | 1018.3 |
| 20260901031036 | 26 | 5 | 0.0 | 0.0 | 0.00 | 0.00 | 0.00 | 84 | 1018.3 |
| 20260901030924 | 26 | 5 | 0.0 | 0.0 | 0.00 | 0.00 | 0.00 | 83 | 1018.3 |
| 20260901030835 | 26 | 5 | 0.0 | 0.0 | 0.00 | 0.00 | 0.00 | 83 | 1018.2 |
| 20260901030723 | 26 | 5 | 0.0 | 0.0 | 0.00 | 0.00 | 0.00 | 83 | 1018.3 |
| 20260901030630 | 26 | 5 | 0.0 | 0.0 | 0.00 | 0.00 | 0.00 | 82 | 1018.2 |
| 20260901030536 | 26 | 5 | 0.0 | 0.0 | 0.00 | 0.00 | 0.00 | 82 | 1018.3 |
| 20260901030424 | 26 | 5 | 0.0 | 0.0 | 0.00 | 0.00 | 0.00 | 82 | 1018.3 |
| 20260901030358 | 26 | 5 | 0.0 | 0.0 | 0.00 | 0.00 | 0.00 | 82 | 1018.3 |
| 20260901030132 | 26 | 5 | 0.0 | 0.0 | 0.00 | 0.00 | 0.00 | 82 | 1018.3 |
| 20260901030039 | 26 | 5 | 0.0 | 0.0 | 0.00 | 0.00 | 0.00 | 81 | 1018.3 |
| 20260901025948 | 26 | 5 | 0.0 | 0.0 | 0.00 | 0.00 | 0.00 | 81 | 1018.4 |
| 20260901025833 | 26 | 5 | 0.0 | 0.0 | 0.00 | 0.00 | 0.00 | 81 | 1018.3 |
| 20260901025724 | 26 | 5 | 0.0 | 0.0 | 0.00 | 0.00 | 0.00 | 81 | 1018.3 |
| 20260901025632 | 26 | 5 | 0.0 | 0.0 | 0.00 | 0.00 | 0.00 | 81 | 1018.3 |
| 20260901025538 | 26 | 5 | 0.0 | 0.0 | 0.00 | 0.00 | 0.00 | 81 | 1018.3 |
| 20260901025425 | 26 | 5 | 0.0 | 0.0 | 0.00 | 0.00 | 0.00 | 81 | 1018.3 |
| 20260901025333 | 26 | 5 | 0.0 | 0.0 | 0.00 | 0.00 | 0.00 | 81 | 1018.3 |
| 20260901025220 | 26 | 5 | 0.0 | 0.0 | 0.00 | 0.00 | 0.00 | 81 | 1018.4 |
| 20260901025133 | 27 | 5 | 0.0 | 0.0 | 0.00 | 0.00 | 0.00 | 81 | 1018.3 |
| 20260901025101 | 27 | 5 | 0.0 | 0.0 | 0.00 | 0.00 | 0.00 | 81 | 1018.3 |
| 20260901024947 | 27 | 5 | 0.0 | 0.0 | 0.00 | 0.00 | 0.00 | 81 | 1018.3 |
| 20260901024856 | 27 | 5 | 0.0 | 0.0 | 0.00 | 0.00 | 0.00 | 80 | 1018.3 |
| 20260901024630 | 27 | 5 | 0.0 | 0.0 | 0.00 | 0.00 | 0.00 | 80 | 1018.3 |
| 20260901024521 | 27 | 5 | 0.0 | 0.0 | 0.00 | 0.00 | 0.00 | 80 | 1018.4 |
| 20260901024428 | 27 | 5 | 0.0 | 0.0 | 0.00 | 0.00 | 0.00 | 80 | 1018.3 |
| 20260901024355 | 27 | 5 | 0.0 | 0.0 | 0.00 | 0.00 | 0.00 | 79 | 1018.3 |
| 20260901024222 | 27 | 5 | 0.0 | 0.0 | 0.00 | 0.00 | 0.00 | 79 | 1018.3 |
| 20260901024130 | 27 | 5 | 0.0 | 0.0 | 0.00 | 0.00 | 0.00 | 79 | 1018.3 |
| 20260901024038 | 27 | 5 | 0.0 | 0.0 | 0.00 | 0.00 | 0.00 | 79 | 1018.3 |
| 20260901023945 | 27 | 5 | 0.0 | 0.0 | 0.00 | 0.00 | 0.00 | 79 | 1018.2 |
| 20260901023836 | 27 | 5 | 0.0 | 0.0 | 0.00 | 0.00 | 0.00 | 78 | 1018.2 |
| 20260901023744 | 27 | 5 | 0.0 | 0.0 | 0.00 | 0.00 | 0.00 | 78 | 1018.2 |
| 20260901023630 | 27 | 5 | 0.0 | 0.0 | 0.00 | 0.00 | 0.00 | 78 | 1018.3 |
| 20260901023558 | 27 | 5 | 0.0 | 0.0 | 0.00 | 0.00 | 0.00 | 78 | 1018.2 |
| 20260901023424 | 27 | 5 | 0.0 | 1.6 | 0.00 | 0.00 | 0.00 | 78 | 1018.2 |
| 20260901023358 | 27 | 5 | 0.0 | 1.6 | 0.00 | 0.00 | 0.00 | 78 | 1018.2 |
| 20260901023131 | 27 | 5 | 0.0 | 1.6 | 0.00 | 0.00 | 0.00 | 78 | 1018.1 |
| 20260901023100 | 27 | 5 | 0.0 | 1.6 | 0.00 | 0.00 | 0.00 | 78 | 1018.2 |
| 20260901022927 | 27 | 5 | 0.0 | 1.6 | 0.00 | 0.00 | 0.00 | 78 | 1018.2 |
| 20260901022833 | 27 | 5 | 0.0 | 1.6 | 0.00 | 0.00 | 0.00 | 78 | 1018.2 |
| 20260901022722 | 27 | 5 | 0.0 | 1.6 | 0.00 | 0.00 | 0.00 | 78 | 1018.1 |
| 20260901022654 | 27 | 5 | 0.0 | 1.6 | 0.00 | 0.00 | 0.00 | 77 | 1018.2 |
| 20260901022521 | 27 | 5 | 0.0 | 1.6 | 0.00 | 0.00 | 0.00 | 77 | 1018.1 |
| 20260901022428 | 27 | 259 | 0.0 | 1.6 | 0.00 | 0.00 | 0.00 | 77 | 1018.1 |
| 20260901022336 | 27 | 259 | 0.0 | 0.0 | 0.00 | 0.00 | 0.00 | 77 | 1018.1 |
| 20260901022242 | 27 | 259 | 0.0 | 0.0 | 0.00 | 0.00 | 0.00 | 77 | 1018.1 |
| 20260901022129 | 27 | 259 | 0.0 | 1.6 | 0.00 | 0.00 | 0.00 | 77 | 1018.1 |
| 20260901022041 | 27 | 259 | 0.0 | 1.6 | 0.00 | 0.00 | 0.00 | 77 | 1018.0 |
| 20260901021949 | 27 | 259 | 0.0 | 1.6 | 0.00 | 0.00 | 0.00 | 77 | 1018.1 |
| 20260901021858 | 27 | 259 | 0.0 | 3.2 | 0.00 | 0.00 | 0.00 | 76 | 1018.1 |
| 20260901021632 | 27 | 259 | 0.0 | 3.2 | 0.00 | 0.00 | 0.00 | 76 | 1018.1 |
| 20260901021539 | 27 | 259 | 0.0 | 3.2 | 0.00 | 0.00 | 0.00 | 76 | 1018.1 |
| 20260901021431 | 27 | 259 | 0.0 | 3.2 | 0.00 | 0.00 | 0.00 | 76 | 1018.1 |
| 20260901021339 | 27 | 259 | 0.0 | 3.2 | 0.00 | 0.00 | 0.00 | 75 | 1018.1 |
| 20260901021246 | 27 | 259 | 0.0 | 3.2 | 0.00 | 0.00 | 0.00 | 75 | 1018.0 |
| 20260901021133 | 27 | 259 | 1.6 | 3.2 | 0.00 | 0.00 | 0.00 | 75 | 1018.0 |
| 20260901021021 | 27 | 259 | 1.6 | 3.2 | 0.00 | 0.00 | 0.00 | 75 | 1018.0 |
| 20260901020948 | 27 | 259 | 1.6 | 3.2 | 0.00 | 0.00 | 0.00 | 74 | 1018.1 |
| 20260901020856 | 27 | 259 | 1.6 | 3.2 | 0.00 | 0.00 | 0.00 | 75 | 1018.1 |
| 20260901020727 | 27 | 259 | 1.6 | 3.2 | 0.00 | 0.00 | 0.00 | 75 | 1018.0 |
| 20260901020635 | 27 | 259 | 1.6 | 3.2 | 0.00 | 0.00 | 0.00 | 74 | 1018.0 |
| 20260901020523 | 27 | 259 | 1.6 | 3.2 | 0.00 | 0.00 | 0.00 | 75 | 1018.0 |
| 20260901020430 | 28 | 259 | 0.0 | 1.6 | 0.00 | 0.00 | 0.00 | 75 | 1018.0 |
| 20260901020403 | 28 | 259 | 0.0 | 1.6 | 0.00 | 0.00 | 0.00 | 74 | 1018.0 |
| 20260901020136 | 28 | 259 | 0.0 | 1.6 | 0.00 | 0.00 | 0.00 | 74 | 1018.0 |
| 20260901020043 | 28 | 259 | 0.0 | 1.6 | 0.00 | 0.00 | 0.00 | 75 | 1018.0 |
| 20260901015930 | 28 | 259 | 0.0 | 0.0 | 0.00 | 0.00 | 0.00 | 75 | 1018.0 |
| 20260901015838 | 28 | 259 | 0.0 | 0.0 | 0.00 | 0.00 | 0.00 | 75 | 1017.9 |
| 20260901015745 | 28 | 259 | 0.0 | 0.0 | 0.00 | 0.00 | 0.00 | 75 | 1017.9 |
| 20260901015632 | 28 | 259 | 0.0 | 0.0 | 0.00 | 0.00 | 0.00 | 74 | 1017.9 |
| 20260901015523 | 28 | 259 | 0.0 | 0.0 | 0.00 | 0.00 | 0.00 | 74 | 1017.9 |
| 20260901015430 | 28 | 259 | 0.0 | 0.0 | 0.00 | 0.00 | 0.00 | 74 | 1017.9 |
| 20260901015358 | 28 | 259 | 0.0 | 0.0 | 0.00 | 0.00 | 0.00 | 74 | 1017.9 |
| 20260901015225 | 28 | 259 | 0.0 | 0.0 | 0.00 | 0.00 | 0.00 | 74 | 1017.9 |
| 20260901015132 | 28 | 259 | 0.0 | 0.0 | 0.00 | 0.00 | 0.00 | 74 | 1017.9 |
| 20260901015058 | 28 | 259 | 0.0 | 0.0 | 0.00 | 0.00 | 0.00 | 74 | 1017.9 |
| 20260901014949 | 28 | 259 | 0.0 | 0.0 | 0.00 | 0.00 | 0.00 | 73 | 1017.9 |
| 20260901014857 | 28 | 259 | 0.0 | 0.0 | 0.00 | 0.00 | 0.00 | 73 | 1017.9 |
| 20260901014632 | 28 | 259 | 0.0 | 0.0 | 0.00 | 0.00 | 0.00 | 73 | 1017.8 |
| 20260901014539 | 28 | 259 | 0.0 | 0.0 | 0.00 | 0.00 | 0.00 | 73 | 1017.8 |
| 20260901014428 | 28 | 259 | 0.0 | 1.6 | 0.00 | 0.00 | 0.00 | 73 | 1017.8 |
| 20260901014338 | 28 | 259 | 0.0 | 1.6 | 0.00 | 0.00 | 0.00 | 73 | 1017.7 |
| 20260901014247 | 28 | 259 | 0.0 | 3.2 | 0.00 | 0.00 | 0.00 | 72 | 1017.7 |
| 20260901014133 | 28 | 259 | 0.0 | 3.2 | 0.00 | 0.00 | 0.00 | 72 | 1017.8 |
| 20260901014021 | 28 | 259 | 0.0 | 3.2 | 0.00 | 0.00 | 0.00 | 72 | 1017.8 |
| 20260901013949 | 28 | 259 | 0.0 | 3.2 | 0.00 | 0.00 | 0.00 | 72 | 1017.7 |
| 20260901013856 | 28 | 259 | 0.0 | 3.2 | 0.00 | 0.00 | 0.00 | 72 | 1017.8 |
| 20260901013727 | 28 | 259 | 0.0 | 3.2 | 0.00 | 0.00 | 0.00 | 72 | 1017.9 |
| 20260901013635 | 28 | 259 | 0.0 | 3.2 | 0.00 | 0.00 | 0.00 | 72 | 1017.8 |
| 20260901013522 | 28 | 259 | 1.6 | 3.2 | 0.00 | 0.00 | 0.00 | 72 | 1017.8 |
| 20260901013429 | 28 | 259 | 1.6 | 3.2 | 0.00 | 0.00 | 0.00 | 72 | 1017.9 |
| 20260901013400 | 29 | 259 | 1.6 | 3.2 | 0.00 | 0.00 | 0.00 | 71 | 1017.9 |
| 20260901013137 | 29 | 259 | 0.0 | 1.6 | 0.00 | 0.00 | 0.00 | 71 | 1017.8 |
| 20260901013025 | 29 | 259 | 0.0 | 0.0 | 0.00 | 0.00 | 0.00 | 71 | 1017.8 |
| 20260901012933 | 29 | 259 | 0.0 | 0.0 | 0.00 | 0.00 | 0.00 | 70 | 1017.8 |
| 20260901012820 | 29 | 259 | 0.0 | 0.0 | 0.00 | 0.00 | 0.00 | 70 | 1017.8 |
| 20260901012728 | 29 | 259 | 0.0 | 1.6 | 0.00 | 0.00 | 0.00 | 70 | 1017.8 |
| 20260901012656 | 29 | 259 | 0.0 | 1.6 | 0.00 | 0.00 | 0.00 | 70 | 1017.7 |
| 20260901012527 | 29 | 259 | 0.0 | 1.6 | 0.00 | 0.00 | 0.00 | 70 | 1017.7 |
| 20260901012434 | 29 | 259 | 0.0 | 1.6 | 0.00 | 0.00 | 0.00 | 69 | 1017.7 |
| 20260901012323 | 29 | 259 | 0.0 | 1.6 | 0.00 | 0.00 | 0.00 | 69 | 1017.8 |
| 20260901012231 | 29 | 259 | 0.0 | 1.6 | 0.00 | 0.00 | 0.00 | 69 | 1017.7 |
| 20260901012138 | 29 | 259 | 0.0 | 1.6 | 0.00 | 0.00 | 0.00 | 69 | 1017.7 |
| 20260901012030 | 29 | 259 | 0.0 | 1.6 | 0.00 | 0.00 | 0.00 | 69 | 1017.7 |
| 20260901011938 | 29 | 259 | 0.0 | 1.6 | 0.00 | 0.00 | 0.00 | 69 | 1017.6 |
| 20260901011909 | 30 | 259 | 0.0 | 1.6 | 0.00 | 0.00 | 0.00 | 69 | 1017.6 |
| 20260901011623 | 30 | 259 | 0.0 | 1.6 | 0.00 | 0.00 | 0.00 | 69 | 1017.7 |
| 20260901011535 | 30 | 259 | 0.0 | 1.6 | 0.00 | 0.00 | 0.00 | 68 | 1017.6 |
| 20260901011422 | 30 | 259 | 0.0 | 1.6 | 0.00 | 0.00 | 0.00 | 68 | 1017.7 |
| 20260901011329 | 30 | 259 | 0.0 | 1.6 | 0.00 | 0.00 | 0.00 | 68 | 1017.7 |
| 20260901011237 | 30 | 259 | 0.0 | 1.6 | 0.00 | 0.00 | 0.00 | 68 | 1017.6 |
| 20260901011143 | 30 | 259 | 0.0 | 1.6 | 0.00 | 0.00 | 0.00 | 68 | 1017.6 |
| 20260901011031 | 30 | 259 | 0.0 | 1.6 | 0.00 | 0.00 | 0.00 | 68 | 1017.6 |
| 20260901010922 | 30 | 259 | 0.0 | 1.6 | 0.00 | 0.00 | 0.00 | 68 | 1017.6 |
| 20260901010850 | 30 | 259 | 0.0 | 1.6 | 0.00 | 0.00 | 0.00 | 68 | 1017.6 |
| 20260901010737 | 30 | 259 | 0.0 | 3.2 | 0.00 | 0.00 | 0.00 | 67 | 1017.6 |
| 20260901010623 | 30 | 259 | 0.0 | 3.2 | 0.00 | 0.00 | 0.00 | 67 | 1017.6 |
| 20260901010550 | 30 | 259 | 0.0 | 4.8 | 0.00 | 0.00 | 0.00 | 67 | 1017.6 |
| 20260901010437 | 30 | 259 | 0.0 | 4.8 | 0.00 | 0.00 | 0.00 | 67 | 1017.6 |
| 20260901010412 | 30 | 259 | 1.6 | 4.8 | 0.00 | 0.00 | 0.00 | 67 | 1017.6 |
| 20260901010147 | 30 | 259 | 1.6 | 4.8 | 0.00 | 0.00 | 0.00 | 67 | 1017.6 |
| 20260901010033 | 30 | 259 | 1.6 | 4.8 | 0.00 | 0.00 | 0.00 | 67 | 1017.6 |
| 20260901005940 | 30 | 259 | 1.6 | 4.8 | 0.00 | 0.00 | 0.00 | 66 | 1017.6 |
| 20260901005828 | 30 | 259 | 1.6 | 8.0 | 0.00 | 0.00 | 0.00 | 66 | 1017.5 |
| 20260901005755 | 30 | 259 | 1.6 | 8.0 | 0.00 | 0.00 | 0.00 | 66 | 1017.6 |
| 20260901005626 | 30 | 212 | 1.6 | 8.0 | 0.00 | 0.00 | 0.00 | 65 | 1017.5 |
| 20260901005533 | 30 | 212 | 3.2 | 8.0 | 0.00 | 0.00 | 0.00 | 65 | 1017.6 |
| 20260901005501 | 30 | 208 | 3.2 | 8.0 | 0.00 | 0.00 | 0.00 | 65 | 1017.4 |
| 20260901005327 | 30 | 198 | 3.2 | 8.0 | 0.00 | 0.00 | 0.00 | 65 | 1017.4 |
| 20260901005235 | 30 | 213 | 3.2 | 8.0 | 0.00 | 0.00 | 0.00 | 65 | 1017.4 |
| 20260901005127 | 30 | 200 | 4.8 | 8.0 | 0.00 | 0.00 | 0.00 | 65 | 1017.3 |
| 20260901005054 | 30 | 215 | 4.8 | 8.0 | 0.00 | 0.00 | 0.00 | 65 | 1017.4 |
| 20260901004940 | 30 | 211 | 4.8 | 6.4 | 0.00 | 0.00 | 0.00 | 65 | 1017.3 |
| 20260901004910 | 30 | 189 | 4.8 | 6.4 | 0.00 | 0.00 | 0.00 | 65 | 1017.3 |
| 20260901004623 | 30 | 207 | 3.2 | 6.4 | 0.00 | 0.00 | 0.00 | 64 | 1017.2 |
| 20260901004536 | 30 | 198 | 3.2 | 6.4 | 0.00 | 0.00 | 0.00 | 64 | 1017.2 |
| 20260901004443 | 30 | 223 | 1.6 | 6.4 | 0.00 | 0.00 | 0.00 | 64 | 1017.2 |
| 20260901004330 | 31 | 238 | 3.2 | 6.4 | 0.00 | 0.00 | 0.00 | 64 | 1017.3 |
| 20260901004238 | 31 | 246 | 3.2 | 6.4 | 0.00 | 0.00 | 0.00 | 64 | 1017.2 |
| 20260901004125 | 31 | 209 | 3.2 | 6.4 | 0.00 | 0.00 | 0.00 | 64 | 1017.2 |
| 20260901004032 | 31 | 216 | 3.2 | 8.0 | 0.00 | 0.00 | 0.00 | 64 | 1017.2 |
| 20260901003923 | 31 | 205 | 3.2 | 8.0 | 0.00 | 0.00 | 0.00 | 64 | 1017.3 |
| 20260901003831 | 31 | 207 | 3.2 | 8.0 | 0.00 | 0.00 | 0.00 | 64 | 1017.2 |
| 20260901003800 | 31 | 213 | 3.2 | 8.0 | 0.00 | 0.00 | 0.00 | 63 | 1017.1 |
| 20260901003625 | 31 | 196 | 4.8 | 8.0 | 0.00 | 0.00 | 0.00 | 63 | 1017.1 |
| 20260901003532 | 31 | 214 | 4.8 | 8.0 | 0.00 | 0.00 | 0.00 | 63 | 1017.1 |
| 20260901003459 | 31 | 205 | 4.8 | 8.0 | 0.00 | 0.00 | 0.00 | 63 | 1017.2 |
| 20260901003411 | 31 | 223 | 4.8 | 8.0 | 0.00 | 0.00 | 0.00 | 63 | 1017.2 |
| 20260901003124 | 31 | 194 | 4.8 | 8.0 | 0.00 | 0.00 | 0.00 | 63 | 1017.1 |
| 20260901003031 | 31 | 201 | 4.8 | 9.7 | 0.00 | 0.00 | 0.00 | 63 | 1017.1 |
| 20260901002939 | 31 | 216 | 4.8 | 9.7 | 0.00 | 0.00 | 0.00 | 63 | 1017.1 |
| 20260901002827 | 31 | 205 | 6.4 | 9.7 | 0.00 | 0.00 | 0.00 | 63 | 1017.2 |
| 20260901002738 | 31 | 203 | 6.4 | 9.7 | 0.00 | 0.00 | 0.00 | 62 | 1017.2 |
| 20260901002626 | 31 | 196 | 4.8 | 9.7 | 0.00 | 0.00 | 0.00 | 63 | 1017.2 |
| 20260901002534 | 31 | 185 | 6.4 | 9.7 | 0.00 | 0.00 | 0.00 | 62 | 1017.2 |
| 20260901002421 | 31 | 213 | 6.4 | 9.7 | 0.00 | 0.00 | 0.00 | 62 | 1017.2 |
| 20260901002328 | 31 | 201 | 6.4 | 9.7 | 0.00 | 0.00 | 0.00 | 62 | 1017.2 |
| 20260901002235 | 31 | 209 | 6.4 | 9.7 | 0.00 | 0.00 | 0.00 | 62 | 1017.2 |
| 20260901002127 | 31 | 209 | 8.0 | 9.7 | 0.00 | 0.00 | 0.00 | 62 | 1017.1 |
| 20260901002036 | 31 | 192 | 6.4 | 9.7 | 0.00 | 0.00 | 0.00 | 62 | 1017.1 |
| 20260901001942 | 31 | 217 | 4.8 | 8.0 | 0.00 | 0.00 | 0.00 | 62 | 1017.2 |
| 20260901001913 | 31 | 194 | 4.8 | 8.0 | 0.00 | 0.00 | 0.00 | 62 | 1017.2 |
| 20260901001630 | 31 | 203 | 6.4 | 8.0 | 0.00 | 0.00 | 0.00 | 62 | 1017.1 |
| 20260901001556 | 31 | 190 | 6.4 | 8.0 | 0.00 | 0.00 | 0.00 | 62 | 1017.2 |
| 20260901001422 | 31 | 210 | 4.8 | 8.0 | 0.00 | 0.00 | 0.00 | 62 | 1017.2 |
| 20260901001330 | 31 | 184 | 6.4 | 9.7 | 0.00 | 0.00 | 0.00 | 62 | 1017.2 |
| 20260901001237 | 31 | 182 | 6.4 | 9.7 | 0.00 | 0.00 | 0.00 | 62 | 1017.2 |
| 20260901001124 | 31 | 209 | 4.8 | 9.7 | 0.00 | 0.00 | 0.00 | 61 | 1017.2 |
| 20260901001037 | 31 | 203 | 4.8 | 9.7 | 0.00 | 0.00 | 0.00 | 61 | 1017.2 |
| 20260901000925 | 31 | 190 | 4.8 | 9.7 | 0.00 | 0.00 | 0.00 | 61 | 1017.1 |
| 20260901000834 | 31 | 198 | 4.8 | 9.7 | 0.00 | 0.00 | 0.00 | 61 | 1017.1 |
| 20260901000741 | 31 | 196 | 6.4 | 9.7 | 0.00 | 0.00 | 0.00 | 61 | 1017.2 |
| 20260901000628 | 31 | 207 | 6.4 | 9.7 | 0.00 | 0.00 | 0.00 | 61 | 1017.2 |
| 20260901000535 | 31 | 207 | 6.4 | 9.7 | 0.00 | 0.00 | 0.00 | 61 | 1017.2 |
| 20260901000428 | 31 | 212 | 4.8 | 9.7 | 0.00 | 0.00 | 0.00 | 61 | 1017.2 |
| 20260901000358 | 31 | 200 | 4.8 | 9.7 | 0.00 | 0.00 | 0.00 | 61 | 1017.2 |
| 20260901000150 | 31 | 194 | 4.8 | 9.7 | 0.00 | 0.00 | 0.00 | 61 | 1017.2 |
| 20260901000037 | 31 | 190 | 3.2 | 9.7 | 0.00 | 0.00 | 0.00 | 61 | 1017.2 |
| 20260831235929 | 31 | 186 | 3.2 | 12.9 | 0.00 | 0.00 | 0.00 | 61 | 1017.2 |
| 20260831235836 | 32 | 203 | 3.2 | 12.9 | 0.00 | 0.00 | 0.00 | 61 | 1017.2 |
| 20260831235745 | 32 | 247 | 6.4 | 12.9 | 0.00 | 0.00 | 0.00 | 61 | 1017.2 |
| 20260831235631 | 32 | 192 | 6.4 | 12.9 | 0.00 | 0.00 | 0.00 | 61 | 1017.1 |
| 20260831235539 | 32 | 213 | 6.4 | 12.9 | 0.00 | 0.00 | 0.00 | 61 | 1017.2 |
| 20260831235426 | 32 | 197 | 4.8 | 12.9 | 0.00 | 0.00 | 0.00 | 61 | 1017.1 |
| 20260831235337 | 32 | 201 | 6.4 | 12.9 | 0.00 | 0.00 | 0.00 | 60 | 1017.2 |
| 20260831235224 | 32 | 183 | 8.0 | 12.9 | 0.00 | 0.00 | 0.00 | 60 | 1017.2 |
| 20260831235152 | 32 | 195 | 8.0 | 12.9 | 0.00 | 0.00 | 0.00 | 60 | 1017.2 |
| 20260831235039 | 32 | 196 | 6.4 | 11.3 | 0.00 | 0.00 | 0.00 | 61 | 1017.3 |
| 20260831234926 | 32 | 210 | 4.8 | 8.0 | 0.00 | 0.00 | 0.00 | 60 | 1017.3 |
| 20260831234900 | 32 | 207 | 6.4 | 8.0 | 0.00 | 0.00 | 0.00 | 60 | 1017.3 |
| 20260831234654 | 32 | 202 | 6.4 | 8.0 | 0.00 | 0.00 | 0.00 | 60 | 1017.2 |
| 20260831234521 | 32 | 202 | 4.8 | 11.3 | 0.00 | 0.00 | 0.00 | 60 | 1017.2 |
| 20260831234428 | 32 | 207 | 4.8 | 11.3 | 0.00 | 0.00 | 0.00 | 60 | 1017.2 |
| 20260831234335 | 32 | 200 | 6.4 | 11.3 | 0.00 | 0.00 | 0.00 | 60 | 1017.2 |
| 20260831234222 | 32 | 180 | 4.8 | 11.3 | 0.00 | 0.00 | 0.00 | 60 | 1017.1 |
| 20260831234132 | 32 | 192 | 4.8 | 11.3 | 0.00 | 0.00 | 0.00 | 59 | 1017.3 |
| 20260831234040 | 32 | 207 | 4.8 | 11.3 | 0.00 | 0.00 | 0.00 | 59 | 1017.2 |
| 20260831233927 | 32 | 174 | 6.4 | 11.3 | 0.00 | 0.00 | 0.00 | 59 | 1017.3 |
| 20260831233855 | 32 | 196 | 6.4 | 11.3 | 0.00 | 0.00 | 0.00 | 58 | 1017.2 |
| 20260831233723 | 32 | 178 | 6.4 | 11.3 | 0.00 | 0.00 | 0.00 | 58 | 1017.2 |
| 20260831233631 | 32 | 198 | 6.4 | 11.3 | 0.00 | 0.00 | 0.00 | 58 | 1017.2 |
| 20260831233523 | 32 | 179 | 6.4 | 11.3 | 0.00 | 0.00 | 0.00 | 58 | 1017.2 |
| 20260831233430 | 32 | 153 | 6.4 | 11.3 | 0.00 | 0.00 | 0.00 | 57 | 1017.2 |
| 20260831233402 | 32 | 147 | 6.4 | 11.3 | 0.00 | 0.00 | 0.00 | 57 | 1017.2 |
| 20260831233134 | 32 | 190 | 6.4 | 11.3 | 0.00 | 0.00 | 0.00 | 57 | 1017.2 |
| 20260831233026 | 32 | 184 | 6.4 | 11.3 | 0.00 | 0.00 | 0.00 | 57 | 1017.2 |
| 20260831232934 | 32 | 186 | 4.8 | 11.3 | 0.00 | 0.00 | 0.00 | 57 | 1017.2 |
| 20260831232821 | 32 | 188 | 3.2 | 8.0 | 0.00 | 0.00 | 0.00 | 57 | 1017.2 |
| 20260831232748 | 32 | 220 | 3.2 | 9.7 | 0.00 | 0.00 | 0.00 | 57 | 1017.3 |
| 20260831232635 | 32 | 132 | 4.8 | 9.7 | 0.00 | 0.00 | 0.00 | 56 | 1017.2 |
| 20260831232522 | 32 | 152 | 4.8 | 9.7 | 0.00 | 0.00 | 0.00 | 57 | 1017.3 |
| 20260831232434 | 32 | 188 | 4.8 | 12.9 | 0.00 | 0.00 | 0.00 | 56 | 1017.2 |
| 20260831232321 | 32 | 156 | 3.2 | 12.9 | 0.00 | 0.00 | 0.00 | 58 | 1017.2 |
| 20260831232250 | 32 | 154 | 3.2 | 12.9 | 0.00 | 0.00 | 0.00 | 57 | 1017.2 |
| 20260831232136 | 33 | 142 | 4.8 | 12.9 | 0.00 | 0.00 | 0.00 | 57 | 1017.3 |
| 20260831232024 | 33 | 189 | 6.4 | 12.9 | 0.00 | 0.00 | 0.00 | 57 | 1017.2 |
| 20260831231931 | 33 | 173 | 8.0 | 12.9 | 0.00 | 0.00 | 0.00 | 57 | 1017.2 |
| 20260831231904 | 33 | 227 | 8.0 | 12.9 | 0.00 | 0.00 | 0.00 | 57 | 1017.2 |
| 20260831231637 | 33 | 156 | 8.0 | 12.9 | 0.00 | 0.00 | 0.00 | 57 | 1017.2 |
| 20260831231524 | 33 | 126 | 6.4 | 12.9 | 0.00 | 0.00 | 0.00 | 57 | 1017.2 |
| 20260831231432 | 33 | 135 | 4.8 | 12.9 | 0.00 | 0.00 | 0.00 | 57 | 1017.1 |
| 20260831231343 | 33 | 142 | 3.2 | 12.9 | 0.00 | 0.00 | 0.00 | 58 | 1017.2 |
| 20260831231229 | 33 | 163 | 3.2 | 14.5 | 0.00 | 0.00 | 0.00 | 57 | 1017.2 |
| 20260831231138 | 33 | 245 | 4.8 | 14.5 | 0.00 | 0.00 | 0.00 | 57 | 1017.2 |
| 20260831231025 | 33 | 178 | 8.0 | 14.5 | 0.00 | 0.00 | 0.00 | 57 | 1017.3 |
| 20260831230934 | 33 | 182 | 8.0 | 14.5 | 0.00 | 0.00 | 0.00 | 57 | 1017.3 |
| 20260831230840 | 33 | 140 | 8.0 | 14.5 | 0.00 | 0.00 | 0.00 | 56 | 1017.3 |
| 20260831230730 | 33 | 103 | 6.4 | 14.5 | 0.00 | 0.00 | 0.00 | 55 | 1017.2 |
| 20260831230638 | 33 | 129 | 6.4 | 14.5 | 0.00 | 0.00 | 0.00 | 55 | 1017.3 |
| 20260831230547 | 33 | 134 | 6.4 | 14.5 | 0.00 | 0.00 | 0.00 | 55 | 1017.3 |
| 20260831230433 | 33 | 119 | 6.4 | 14.5 | 0.00 | 0.00 | 0.00 | 55 | 1017.3 |
| 20260831230403 | 33 | 134 | 6.4 | 12.9 | 0.00 | 0.00 | 0.00 | 55 | 1017.3 |
| 20260831230120 | 33 | 173 | 6.4 | 11.3 | 0.00 | 0.00 | 0.00 | 55 | 1017.2 |
| 20260831230027 | 33 | 146 | 3.2 | 11.3 | 0.00 | 0.00 | 0.00 | 55 | 1017.3 |
| 20260831225933 | 33 | 181 | 4.8 | 11.3 | 0.00 | 0.00 | 0.00 | 54 | 1017.3 |
| 20260831225821 | 33 | 169 | 6.4 | 11.3 | 0.00 | 0.00 | 0.00 | 56 | 1017.3 |
| 20260831225730 | 33 | 138 | 6.4 | 11.3 | 0.00 | 0.00 | 0.00 | 55 | 1017.3 |
| 20260831225620 | 33 | 171 | 6.4 | 11.3 | 0.00 | 0.00 | 0.00 | 55 | 1017.4 |
| 20260831225527 | 33 | 202 | 6.4 | 11.3 | 0.00 | 0.00 | 0.00 | 54 | 1017.2 |
| 20260831225435 | 33 | 226 | 4.8 | 12.9 | 0.00 | 0.00 | 0.00 | 55 | 1017.2 |
| 20260831225322 | 33 | 187 | 6.4 | 12.9 | 0.00 | 0.00 | 0.00 | 54 | 1017.4 |
| 20260831225229 | 33 | 175 | 4.8 | 12.9 | 0.00 | 0.00 | 0.00 | 54 | 1017.2 |
| 20260831225120 | 33 | 184 | 3.2 | 12.9 | 0.00 | 0.00 | 0.00 | 56 | 1017.2 |
| 20260831225028 | 33 | 158 | 4.8 | 12.9 | 0.00 | 0.00 | 0.00 | 55 | 1017.2 |
| 20260831224936 | 33 | 144 | 6.4 | 12.9 | 0.00 | 0.00 | 0.00 | 54 | 1017.2 |
| 20260831224906 | 33 | 151 | 6.4 | 12.9 | 0.00 | 0.00 | 0.00 | 55 | 1017.2 |
| 20260831224700 | 33 | 115 | 8.0 | 12.9 | 0.00 | 0.00 | 0.00 | 54 | 1017.3 |
| 20260831224532 | 33 | 182 | 6.4 | 11.3 | 0.00 | 0.00 | 0.00 | 55 | 1017.2 |
| 20260831224438 | 33 | 191 | 4.8 | 12.9 | 0.00 | 0.00 | 0.00 | 55 | 1017.4 |
| 20260831224324 | 33 | 136 | 3.2 | 12.9 | 0.00 | 0.00 | 0.00 | 55 | 1017.3 |
| 20260831224232 | 33 | 146 | 3.2 | 12.9 | 0.00 | 0.00 | 0.00 | 55 | 1017.3 |
| 20260831224140 | 33 | 143 | 1.6 | 12.9 | 0.00 | 0.00 | 0.00 | 53 | 1017.3 |
| 20260831224027 | 33 | 142 | 4.8 | 12.9 | 0.00 | 0.00 | 0.00 | 53 | 1017.2 |
| 20260831223920 | 34 | 142 | 8.0 | 12.9 | 0.00 | 0.00 | 0.00 | 53 | 1017.4 |
| 20260831223847 | 34 | 142 | 6.4 | 12.9 | 0.00 | 0.00 | 0.00 | 55 | 1017.4 |
| 20260831223733 | 34 | 142 | 6.4 | 12.9 | 0.00 | 0.00 | 0.00 | 54 | 1017.4 |
| 20260831223620 | 34 | 141 | 4.8 | 12.9 | 0.00 | 0.00 | 0.00 | 54 | 1017.4 |
| 20260831223527 | 34 | 150 | 3.2 | 12.9 | 0.00 | 0.00 | 0.00 | 53 | 1017.4 |
| 20260831223436 | 34 | 168 | 3.2 | 12.9 | 0.00 | 0.00 | 0.00 | 53 | 1017.4 |
| 20260831223410 | 34 | 116 | 3.2 | 6.4 | 0.00 | 0.00 | 0.00 | 53 | 1017.4 |
| 20260831223122 | 34 | 90 | 3.2 | 6.4 | 0.00 | 0.00 | 0.00 | 52 | 1017.3 |
| 20260831223030 | 34 | 44 | 3.2 | 6.4 | 0.00 | 0.00 | 0.00 | 52 | 1017.4 |
| 20260831222937 | 34 | 74 | 3.2 | 6.4 | 0.00 | 0.00 | 0.00 | 53 | 1017.3 |
| 20260831222849 | 34 | 78 | 3.2 | 6.4 | 0.00 | 0.00 | 0.00 | 55 | 1017.5 |
| 20260831222735 | 34 | 19 | 4.8 | 6.4 | 0.00 | 0.00 | 0.00 | 55 | 1017.4 |
| 20260831222622 | 34 | 28 | 3.2 | 6.4 | 0.00 | 0.00 | 0.00 | 53 | 1017.4 |
| 20260831222550 | 34 | 42 | 3.2 | 9.7 | 0.00 | 0.00 | 0.00 | 53 | 1017.3 |
| 20260831222437 | 34 | 27 | 3.2 | 11.3 | 0.00 | 0.00 | 0.00 | 54 | 1017.4 |
| 20260831222323 | 34 | 5 | 3.2 | 11.3 | 0.00 | 0.00 | 0.00 | 52 | 1017.3 |
| 20260831222234 | 34 | 350 | 1.6 | 11.3 | 0.00 | 0.00 | 0.00 | 53 | 1017.4 |
| 20260831222121 | 34 | 87 | 3.2 | 12.9 | 0.00 | 0.00 | 0.00 | 52 | 1017.4 |
| 20260831222029 | 34 | 82 | 3.2 | 12.9 | 0.00 | 0.00 | 0.00 | 53 | 1017.4 |
| 20260831221937 | 34 | 117 | 4.8 | 12.9 | 0.00 | 0.00 | 0.00 | 55 | 1017.4 |
| 20260831221907 | 34 | 110 | 4.8 | 12.9 | 0.00 | 0.00 | 0.00 | 53 | 1017.4 |
| 20260831221625 | 34 | 95 | 6.4 | 12.9 | 0.00 | 0.00 | 0.00 | 54 | 1017.4 |
| 20260831221531 | 34 | 131 | 8.0 | 12.9 | 0.00 | 0.00 | 0.00 | 55 | 1017.4 |
| 20260831221437 | 34 | 207 | 8.0 | 12.9 | 0.00 | 0.00 | 0.00 | 54 | 1017.4 |
| 20260831221323 | 34 | 204 | 8.0 | 12.9 | 0.00 | 0.00 | 0.00 | 54 | 1017.5 |
| 20260831221232 | 34 | 197 | 4.8 | 11.3 | 0.00 | 0.00 | 0.00 | 54 | 1017.4 |
| 20260831221124 | 33 | 183 | 3.2 | 11.3 | 0.00 | 0.00 | 0.00 | 55 | 1017.5 |
| 20260831221031 | 33 | 184 | 3.2 | 11.3 | 0.00 | 0.00 | 0.00 | 55 | 1017.4 |
| 20260831220937 | 33 | 214 | 3.2 | 11.3 | 0.00 | 0.00 | 0.00 | 55 | 1017.5 |
| 20260831220901 | 34 | 167 | 4.8 | 11.3 | 0.00 | 0.00 | 0.00 | 55 | 1017.5 |
| 20260831220727 | 34 | 134 | 6.4 | 11.3 | 0.00 | 0.00 | 0.00 | 54 | 1017.4 |
| 20260831220634 | 34 | 70 | 8.0 | 11.3 | 0.00 | 0.00 | 0.00 | 53 | 1017.4 |
| 20260831220525 | 34 | 150 | 6.4 | 11.3 | 0.00 | 0.00 | 0.00 | 54 | 1017.4 |
| 20260831220432 | 34 | 113 | 4.8 | 11.3 | 0.00 | 0.00 | 0.00 | 53 | 1017.4 |
| 20260831220403 | 34 | 115 | 4.8 | 11.3 | 0.00 | 0.00 | 0.00 | 53 | 1017.4 |
| 20260831220137 | 34 | 106 | 4.8 | 11.3 | 0.00 | 0.00 | 0.00 | 53 | 1017.4 |
| 20260831220026 | 34 | 137 | 4.8 | 11.3 | 0.00 | 0.00 | 0.00 | 52 | 1017.5 |
| 20260831215937 | 34 | 74 | 3.2 | 11.3 | 0.00 | 0.00 | 0.00 | 51 | 1017.5 |
| 20260831215824 | 34 | 58 | 4.8 | 11.3 | 0.00 | 0.00 | 0.00 | 51 | 1017.6 |
| 20260831215751 | 34 | 46 | 4.8 | 11.3 | 0.00 | 0.00 | 0.00 | 51 | 1017.5 |
| 20260831215638 | 34 | 126 | 6.4 | 11.3 | 0.00 | 0.00 | 0.00 | 51 | 1017.5 |
| 20260831215526 | 34 | 119 | 4.8 | 9.7 | 0.00 | 0.00 | 0.00 | 52 | 1017.6 |
| 20260831215433 | 34 | 129 | 4.8 | 9.7 | 0.00 | 0.00 | 0.00 | 51 | 1017.6 |
| 20260831215324 | 34 | 63 | 4.8 | 9.7 | 0.00 | 0.00 | 0.00 | 52 | 1017.6 |
| 20260831215231 | 34 | 107 | 3.2 | 9.7 | 0.00 | 0.00 | 0.00 | 51 | 1017.5 |
| 20260831215139 | 34 | 113 | 1.6 | 9.7 | 0.00 | 0.00 | 0.00 | 51 | 1017.6 |
| 20260831215025 | 34 | 50 | 3.2 | 9.7 | 0.00 | 0.00 | 0.00 | 51 | 1017.5 |
| 20260831214932 | 34 | 50 | 4.8 | 11.3 | 0.00 | 0.00 | 0.00 | 52 | 1017.6 |
| 20260831214907 | 34 | 28 | 4.8 | 11.3 | 0.00 | 0.00 | 0.00 | 52 | 1017.6 |
| 20260831214638 | 34 | 65 | 3.2 | 11.3 | 0.00 | 0.00 | 0.00 | 54 | 1017.6 |
| 20260831214525 | 34 | 80 | 3.2 | 11.3 | 0.00 | 0.00 | 0.00 | 53 | 1017.6 |
| 20260831214432 | 34 | 117 | 3.2 | 11.3 | 0.00 | 0.00 | 0.00 | 52 | 1017.6 |
| 20260831214324 | 34 | 140 | 4.8 | 11.3 | 0.00 | 0.00 | 0.00 | 53 | 1017.6 |
| 20260831214252 | 34 | 105 | 6.4 | 11.3 | 0.00 | 0.00 | 0.00 | 53 | 1017.5 |
| 20260831214139 | 34 | 71 | 6.4 | 9.7 | 0.00 | 0.00 | 0.00 | 52 | 1017.5 |
| 20260831214046 | 34 | 103 | 4.8 | 9.7 | 0.00 | 0.00 | 0.00 | 51 | 1017.6 |
| 20260831213932 | 34 | 59 | 6.4 | 9.7 | 0.00 | 0.00 | 0.00 | 51 | 1017.5 |
| 20260831213840 | 34 | 31 | 6.4 | 9.7 | 0.00 | 0.00 | 0.00 | 51 | 1017.6 |
| 20260831213727 | 34 | 57 | 6.4 | 9.7 | 0.00 | 0.00 | 0.00 | 51 | 1017.6 |
| 20260831213658 | 34 | 137 | 6.4 | 9.7 | 0.00 | 0.00 | 0.00 | 53 | 1017.6 |
| 20260831213544 | 35 | 118 | 4.8 | 11.3 | 0.00 | 0.00 | 0.00 | 51 | 1017.6 |
| 20260831213451 | 35 | 88 | 4.8 | 11.3 | 0.00 | 0.00 | 0.00 | 52 | 1017.6 |
| 20260831213421 | 35 | 130 | 4.8 | 11.3 | 0.00 | 0.00 | 0.00 | 54 | 1017.6 |
| 20260831213133 | 35 | 116 | 3.2 | 11.3 | 0.00 | 0.00 | 0.00 | 51 | 1017.5 |
| 20260831213024 | 35 | 235 | 1.6 | 9.7 | 0.00 | 0.00 | 0.00 | 51 | 1017.5 |
| 20260831212932 | 35 | 235 | 3.2 | 9.7 | 0.00 | 0.00 | 0.00 | 51 | 1017.6 |
| 20260831212819 | 35 | 5 | 3.2 | 9.7 | 0.00 | 0.00 | 0.00 | 52 | 1017.5 |
| 20260831212727 | 35 | 53 | 4.8 | 9.7 | 0.00 | 0.00 | 0.00 | 52 | 1017.6 |
| 20260831212635 | 35 | 89 | 3.2 | 9.7 | 0.00 | 0.00 | 0.00 | 53 | 1017.5 |
| 20260831212542 | 35 | 67 | 3.2 | 8.0 | 0.00 | 0.00 | 0.00 | 51 | 1017.6 |
| 20260831212433 | 34 | 88 | 3.2 | 8.0 | 0.00 | 0.00 | 0.00 | 52 | 1017.6 |
| 20260831212320 | 34 | 350 | 1.6 | 8.0 | 0.00 | 0.00 | 0.00 | 52 | 1017.6 |
| 20260831212227 | 34 | 309 | 1.6 | 8.0 | 0.00 | 0.00 | 0.00 | 52 | 1017.7 |
| 20260831212135 | 34 | 72 | 3.2 | 8.0 | 0.00 | 0.00 | 0.00 | 52 | 1017.6 |
| 20260831212022 | 34 | 144 | 3.2 | 8.0 | 0.00 | 0.00 | 0.00 | 51 | 1017.7 |
| 20260831211929 | 34 | 193 | 3.2 | 11.3 | 0.00 | 0.00 | 0.00 | 51 | 1017.7 |
| 20260831211904 | 34 | 78 | 3.2 | 11.3 | 0.00 | 0.00 | 0.00 | 51 | 1017.7 |
| 20260831211637 | 34 | 157 | 4.8 | 11.3 | 0.00 | 0.00 | 0.00 | 52 | 1017.7 |
| 20260831211525 | 34 | 156 | 4.8 | 11.3 | 0.00 | 0.00 | 0.00 | 53 | 1017.8 |
| 20260831211432 | 34 | 130 | 3.2 | 11.3 | 0.00 | 0.00 | 0.00 | 53 | 1017.7 |
| 20260831211324 | 34 | 33 | 4.8 | 11.3 | 0.00 | 0.00 | 0.00 | 53 | 1017.7 |
| 20260831211230 | 34 | 61 | 4.8 | 11.3 | 0.00 | 0.00 | 0.00 | 53 | 1017.8 |
| 20260831211158 | 34 | 63 | 3.2 | 11.3 | 0.00 | 0.00 | 0.00 | 55 | 1017.8 |
| 20260831211045 | 34 | 98 | 1.6 | 11.3 | 0.00 | 0.00 | 0.00 | 53 | 1017.9 |
| 20260831210933 | 34 | 5 | 3.2 | 11.3 | 0.00 | 0.00 | 0.00 | 54 | 1017.9 |
| 20260831210839 | 34 | 355 | 1.6 | 11.3 | 0.00 | 0.00 | 0.00 | 54 | 1017.9 |
| 20260831210730 | 33 | 285 | 1.6 | 11.3 | 0.00 | 0.00 | 0.00 | 55 | 1017.9 |
| 20260831210637 | 33 | 196 | 4.8 | 11.3 | 0.00 | 0.00 | 0.00 | 53 | 1017.8 |
| 20260831210525 | 33 | 198 | 4.8 | 9.7 | 0.00 | 0.00 | 0.00 | 53 | 1017.9 |
| 20260831210432 | 33 | 211 | 3.2 | 11.3 | 0.00 | 0.00 | 0.00 | 53 | 1018.0 |
| 20260831210403 | 33 | 267 | 1.6 | 12.9 | 0.00 | 0.00 | 0.00 | 54 | 1018.0 |
| 20260831210121 | 33 | 165 | 3.2 | 12.9 | 0.00 | 0.00 | 0.00 | 55 | 1018.0 |
| 20260831210029 | 33 | 121 | 3.2 | 12.9 | 0.00 | 0.00 | 0.00 | 56 | 1018.0 |
| 20260831205936 | 33 | 135 | 4.8 | 12.9 | 0.00 | 0.00 | 0.00 | 55 | 1018.0 |
| 20260831205843 | 33 | 80 | 4.8 | 12.9 | 0.00 | 0.00 | 0.00 | 56 | 1018.0 |
| 20260831205730 | 33 | 134 | 4.8 | 12.9 | 0.00 | 0.00 | 0.00 | 56 | 1018.0 |
| 20260831205622 | 33 | 128 | 4.8 | 12.9 | 0.00 | 0.00 | 0.00 | 55 | 1018.0 |
| 20260831205528 | 33 | 66 | 4.8 | 12.9 | 0.00 | 0.00 | 0.00 | 57 | 1018.0 |
| 20260831205436 | 33 | 118 | 4.8 | 9.7 | 0.00 | 0.00 | 0.00 | 57 | 1018.0 |
| 20260831205322 | 33 | 32 | 3.2 | 9.7 | 0.00 | 0.00 | 0.00 | 59 | 1018.0 |
| 20260831205230 | 33 | 5 | 1.6 | 9.7 | 0.00 | 0.00 | 0.00 | 57 | 1018.0 |
| 20260831205137 | 33 | 34 | 1.6 | 9.7 | 0.00 | 0.00 | 0.00 | 58 | 1018.1 |
| 20260831205030 | 33 | 34 | 3.2 | 9.7 | 0.00 | 0.00 | 0.00 | 58 | 1018.0 |
| 20260831204937 | 33 | 34 | 3.2 | 9.7 | 0.00 | 0.00 | 0.00 | 58 | 1018.1 |
| 20260831204907 | 33 | 34 | 1.6 | 9.7 | 0.00 | 0.00 | 0.00 | 58 | 1018.1 |
| 20260831204620 | 33 | 44 | 1.6 | 9.7 | 0.00 | 0.00 | 0.00 | 56 | 1018.2 |
| 20260831204532 | 33 | 44 | 1.6 | 9.7 | 0.00 | 0.00 | 0.00 | 58 | 1018.2 |
| 20260831204459 | 33 | 36 | 1.6 | 9.7 | 0.00 | 0.00 | 0.00 | 58 | 1018.2 |
| 20260831204325 | 33 | 42 | 3.2 | 9.7 | 0.00 | 0.00 | 0.00 | 57 | 1018.1 |
| 20260831204234 | 33 | 83 | 3.2 | 9.7 | 0.00 | 0.00 | 0.00 | 58 | 1018.3 |
| 20260831204120 | 33 | 75 | 4.8 | 9.7 | 0.00 | 0.00 | 0.00 | 57 | 1018.2 |
| 20260831204027 | 33 | 109 | 4.8 | 9.7 | 0.00 | 0.00 | 0.00 | 58 | 1018.2 |
| 20260831203935 | 33 | 99 | 4.8 | 11.3 | 0.00 | 0.00 | 0.00 | 57 | 1018.2 |
| 20260831203827 | 33 | 103 | 3.2 | 11.3 | 0.00 | 0.00 | 0.00 | 57 | 1018.3 |
| 20260831203734 | 33 | 117 | 3.2 | 11.3 | 0.00 | 0.00 | 0.00 | 56 | 1018.2 |
| 20260831203621 | 33 | 94 | 1.6 | 11.3 | 0.00 | 0.00 | 0.00 | 56 | 1018.3 |
| 20260831203529 | 33 | 122 | 3.2 | 11.3 | 0.00 | 0.00 | 0.00 | 56 | 1018.3 |
| 20260831203436 | 33 | 80 | 3.2 | 11.3 | 0.00 | 0.00 | 0.00 | 56 | 1018.3 |
| 20260831203411 | 33 | 71 | 3.2 | 11.3 | 0.00 | 0.00 | 0.00 | 55 | 1018.3 |
| 20260831203145 | 33 | 90 | 4.8 | 11.3 | 0.00 | 0.00 | 0.00 | 55 | 1018.3 |
| 20260831203031 | 33 | 166 | 3.2 | 11.3 | 0.00 | 0.00 | 0.00 | 57 | 1018.3 |
| 20260831202938 | 33 | 115 | 3.2 | 11.3 | 0.00 | 0.00 | 0.00 | 55 | 1018.3 |
| 20260831202826 | 33 | 108 | 6.4 | 11.3 | 0.00 | 0.00 | 0.00 | 56 | 1018.3 |
| 20260831202738 | 33 | 89 | 6.4 | 11.3 | 0.00 | 0.00 | 0.00 | 56 | 1018.3 |
| 20260831202626 | 34 | 121 | 3.2 | 9.7 | 0.00 | 0.00 | 0.00 | 56 | 1018.3 |
| 20260831202534 | 34 | 111 | 3.2 | 9.7 | 0.00 | 0.00 | 0.00 | 55 | 1018.4 |
| 20260831202501 | 34 | 52 | 4.8 | 9.7 | 0.00 | 0.00 | 0.00 | 55 | 1018.3 |
| 20260831202325 | 34 | 42 | 6.4 | 9.7 | 0.00 | 0.00 | 0.00 | 55 | 1018.3 |
| 20260831202232 | 34 | 33 | 6.4 | 9.7 | 0.00 | 0.00 | 0.00 | 55 | 1018.3 |
| 20260831202123 | 34 | 34 | 4.8 | 9.7 | 0.00 | 0.00 | 0.00 | 56 | 1018.4 |
| 20260831202050 | 34 | 35 | 3.2 | 9.7 | 0.00 | 0.00 | 0.00 | 56 | 1018.3 |
| 20260831201937 | 34 | 46 | 3.2 | 9.7 | 0.00 | 0.00 | 0.00 | 56 | 1018.3 |
| 20260831201908 | 33 | 77 | 4.8 | 9.7 | 0.00 | 0.00 | 0.00 | 57 | 1018.3 |
| 20260831201627 | 33 | 45 | 6.4 | 9.7 | 0.00 | 0.00 | 0.00 | 58 | 1018.4 |
| 20260831201534 | 33 | 38 | 6.4 | 11.3 | 0.00 | 0.00 | 0.00 | 58 | 1018.4 |
| 20260831201421 | 33 | 22 | 6.4 | 9.7 | 0.00 | 0.00 | 0.00 | 57 | 1018.4 |
| 20260831201348 | 33 | 31 | 4.8 | 8.0 | 0.00 | 0.00 | 0.00 | 59 | 1018.4 |
| 20260831201234 | 33 | 5 | 4.8 | 8.0 | 0.00 | 0.00 | 0.00 | 57 | 1018.4 |
| 20260831201122 | 33 | 35 | 3.2 | 8.0 | 0.00 | 0.00 | 0.00 | 56 | 1018.4 |
| 20260831201035 | 33 | 34 | 3.2 | 8.0 | 0.00 | 0.00 | 0.00 | 55 | 1018.5 |
| 20260831200921 | 33 | 36 | 4.8 | 8.0 | 0.00 | 0.00 | 0.00 | 56 | 1018.4 |
| 20260831200828 | 33 | 34 | 4.8 | 8.0 | 0.00 | 0.00 | 0.00 | 56 | 1018.5 |
| 20260831200735 | 33 | 57 | 4.8 | 8.0 | 0.00 | 0.00 | 0.00 | 56 | 1018.5 |
| 20260831200624 | 33 | 28 | 4.8 | 8.0 | 0.00 | 0.00 | 0.00 | 58 | 1018.5 |
| 20260831200531 | 33 | 67 | 3.2 | 8.0 | 0.00 | 0.00 | 0.00 | 56 | 1018.5 |
| 20260831200442 | 33 | 70 | 3.2 | 8.0 | 0.00 | 0.00 | 0.00 | 57 | 1018.6 |
| 20260831200411 | 33 | 76 | 1.6 | 8.0 | 0.00 | 0.00 | 0.00 | 58 | 1018.6 |
| 20260831200124 | 33 | 355 | 3.2 | 8.0 | 0.00 | 0.00 | 0.00 | 60 | 1018.6 |
| 20260831200031 | 33 | 342 | 4.8 | 8.0 | 0.00 | 0.00 | 0.00 | 60 | 1018.6 |
| 20260831195942 | 33 | 9 | 4.8 | 8.0 | 0.00 | 0.00 | 0.00 | 60 | 1018.6 |
| 20260831195847 | 33 | 344 | 3.2 | 6.4 | 0.00 | 0.00 | 0.00 | 58 | 1018.6 |
| 20260831195733 | 33 | 355 | 3.2 | 6.4 | 0.00 | 0.00 | 0.00 | 58 | 1018.7 |
| 20260831195622 | 33 | 23 | 4.8 | 6.4 | 0.00 | 0.00 | 0.00 | 58 | 1018.6 |
| 20260831195550 | 33 | 38 | 3.2 | 6.4 | 0.00 | 0.00 | 0.00 | 58 | 1018.6 |
| 20260831195436 | 33 | 5 | 3.2 | 8.0 | 0.00 | 0.00 | 0.00 | 58 | 1018.7 |
| 20260831195323 | 33 | 322 | 3.2 | 8.0 | 0.00 | 0.00 | 0.00 | 58 | 1018.7 |
| 20260831195235 | 33 | 313 | 1.6 | 8.0 | 0.00 | 0.00 | 0.00 | 58 | 1018.7 |
| 20260831195123 | 33 | 331 | 3.2 | 8.0 | 0.00 | 0.00 | 0.00 | 58 | 1018.6 |
| 20260831195030 | 33 | 314 | 3.2 | 8.0 | 0.00 | 0.00 | 0.00 | 58 | 1018.7 |
| 20260831194958 | 33 | 296 | 3.2 | 8.0 | 0.00 | 0.00 | 0.00 | 58 | 1018.8 |
| 20260831194908 | 33 | 294 | 3.2 | 8.0 | 0.00 | 0.00 | 0.00 | 58 | 1018.8 |
| 20260831194646 | 33 | 42 | 6.4 | 8.0 | 0.00 | 0.00 | 0.00 | 58 | 1018.7 |
| 20260831194532 | 33 | 41 | 4.8 | 8.0 | 0.00 | 0.00 | 0.00 | 59 | 1018.7 |
| 20260831194420 | 33 | 360 | 3.2 | 8.0 | 0.00 | 0.00 | 0.00 | 58 | 1018.7 |
| 20260831194328 | 33 | 5 | 3.2 | 9.7 | 0.00 | 0.00 | 0.00 | 59 | 1018.7 |
| 20260831194236 | 33 | 5 | 4.8 | 9.7 | 0.00 | 0.00 | 0.00 | 58 | 1018.7 |
| 20260831194128 | 33 | 355 | 4.8 | 9.7 | 0.00 | 0.00 | 0.00 | 58 | 1018.6 |
| 20260831194035 | 33 | 43 | 4.8 | 9.7 | 0.00 | 0.00 | 0.00 | 60 | 1018.7 |
| 20260831193923 | 33 | 9 | 4.8 | 9.7 | 0.00 | 0.00 | 0.00 | 61 | 1018.8 |
| 20260831193831 | 33 | 15 | 4.8 | 9.7 | 0.00 | 0.00 | 0.00 | 61 | 1018.7 |
| 20260831193737 | 33 | 22 | 4.8 | 9.7 | 0.00 | 0.00 | 0.00 | 60 | 1018.8 |
| 20260831193624 | 33 | 347 | 6.4 | 9.7 | 0.00 | 0.00 | 0.00 | 59 | 1018.7 |
| 20260831193556 | 33 | 327 | 6.4 | 9.7 | 0.00 | 0.00 | 0.00 | 59 | 1018.8 |
| 20260831193504 | 33 | 326 | 6.4 | 9.7 | 0.00 | 0.00 | 0.00 | 58 | 1018.8 |
| 20260831193435 | 33 | 326 | 8.0 | 9.7 | 0.00 | 0.00 | 0.00 | 58 | 1018.7 |
| 20260831193127 | 33 | 314 | 6.4 | 8.0 | 0.00 | 0.00 | 0.00 | 58 | 1018.9 |
| 20260831193034 | 33 | 303 | 4.8 | 8.0 | 0.00 | 0.00 | 0.00 | 59 | 1018.9 |
| 20260831192926 | 33 | 327 | 4.8 | 8.0 | 0.00 | 0.00 | 0.00 | 58 | 1018.8 |
| 20260831192833 | 33 | 360 | 3.2 | 8.0 | 0.00 | 0.00 | 0.00 | 57 | 1018.8 |
| 20260831192721 | 33 | 344 | 3.2 | 8.0 | 0.00 | 0.00 | 0.00 | 58 | 1018.8 |
| 20260831192629 | 33 | 301 | 3.2 | 8.0 | 0.00 | 0.00 | 0.00 | 57 | 1018.9 |
| 20260831192536 | 33 | 341 | 3.2 | 8.0 | 0.00 | 0.00 | 0.00 | 58 | 1018.9 |
| 20260831192428 | 33 | 320 | 4.8 | 8.0 | 0.00 | 0.00 | 0.00 | 58 | 1018.8 |
| 20260831192356 | 33 | 314 | 4.8 | 8.0 | 0.00 | 0.00 | 0.00 | 57 | 1018.8 |
| 20260831192222 | 33 | 315 | 4.8 | 8.0 | 0.00 | 0.00 | 0.00 | 57 | 1019.0 |
| 20260831192129 | 33 | 5 | 3.2 | 8.0 | 0.00 | 0.00 | 0.00 | 58 | 1019.0 |
| 20260831192037 | 33 | 336 | 3.2 | 8.0 | 0.00 | 0.00 | 0.00 | 57 | 1018.9 |
| 20260831191944 | 33 | 313 | 3.2 | 8.0 | 0.00 | 0.00 | 0.00 | 57 | 1018.9 |
| 20260831191918 | 33 | 318 | 4.8 | 8.0 | 0.00 | 0.00 | 0.00 | 58 | 1018.9 |
| 20260831191632 | 33 | 305 | 4.8 | 8.0 | 0.00 | 0.00 | 0.00 | 57 | 1019.1 |
| 20260831191540 | 33 | 308 | 6.4 | 8.0 | 0.00 | 0.00 | 0.00 | 58 | 1019.0 |
| 20260831191447 | 33 | 309 | 6.4 | 9.7 | 0.00 | 0.00 | 0.00 | 57 | 1019.0 |
| 20260831191334 | 33 | 327 | 6.4 | 9.7 | 0.00 | 0.00 | 0.00 | 57 | 1019.0 |
| 20260831191220 | 33 | 323 | 6.4 | 9.7 | 0.00 | 0.00 | 0.00 | 59 | 1019.0 |
| 20260831191131 | 33 | 322 | 4.8 | 9.7 | 0.00 | 0.00 | 0.00 | 59 | 1019.1 |
| 20260831191039 | 33 | 355 | 4.8 | 9.7 | 0.00 | 0.00 | 0.00 | 60 | 1019.1 |
| 20260831190926 | 33 | 5 | 4.8 | 9.7 | 0.00 | 0.00 | 0.00 | 61 | 1019.1 |
| 20260831190855 | 33 | 360 | 4.8 | 9.7 | 0.00 | 0.00 | 0.00 | 61 | 1019.1 |
| 20260831190741 | 33 | 355 | 6.4 | 9.7 | 0.00 | 0.00 | 0.00 | 63 | 1019.0 |
| 20260831190647 | 33 | 16 | 6.4 | 9.7 | 0.00 | 0.00 | 0.00 | 62 | 1019.1 |
| 20260831190532 | 33 | 18 | 4.8 | 11.3 | 0.00 | 0.00 | 0.00 | 62 | 1019.1 |
| 20260831190443 | 33 | 22 | 4.8 | 8.0 | 0.00 | 0.00 | 0.00 | 62 | 1019.1 |
| 20260831190413 | 33 | 355 | 4.8 | 6.4 | 0.00 | 0.00 | 0.00 | 64 | 1019.1 |
| 20260831190147 | 32 | 325 | 3.2 | 6.4 | 0.00 | 0.00 | 0.00 | 60 | 1019.1 |
| 20260831190034 | 32 | 5 | 3.2 | 6.4 | 0.00 | 0.00 | 0.00 | 61 | 1019.1 |
| 20260831185942 | 32 | 5 | 4.8 | 6.4 | 0.00 | 0.00 | 0.00 | 60 | 1019.2 |
| 20260831185833 | 32 | 322 | 4.8 | 6.4 | 0.00 | 0.00 | 0.00 | 62 | 1019.2 |
| 20260831185800 | 32 | 323 | 4.8 | 6.4 | 0.00 | 0.00 | 0.00 | 60 | 1019.2 |
| 20260831185626 | 32 | 5 | 4.8 | 6.4 | 0.00 | 0.00 | 0.00 | 60 | 1019.1 |
| 20260831185532 | 32 | 13 | 4.8 | 6.4 | 0.00 | 0.00 | 0.00 | 60 | 1019.2 |
| 20260831185420 | 32 | 324 | 4.8 | 6.4 | 0.00 | 0.00 | 0.00 | 59 | 1019.2 |
| 20260831185328 | 32 | 5 | 4.8 | 6.4 | 0.00 | 0.00 | 0.00 | 59 | 1019.2 |
| 20260831185255 | 32 | 23 | 3.2 | 6.4 | 0.00 | 0.00 | 0.00 | 61 | 1019.2 |
| 20260831185146 | 32 | 39 | 1.6 | 8.0 | 0.00 | 0.00 | 0.00 | 59 | 1019.2 |
| 20260831185032 | 32 | 55 | 1.6 | 8.0 | 0.00 | 0.00 | 0.00 | 59 | 1019.3 |
| 20260831184940 | 32 | 55 | 3.2 | 8.0 | 0.00 | 0.00 | 0.00 | 59 | 1019.2 |
| 20260831184912 | 32 | 28 | 1.6 | 8.0 | 0.00 | 0.00 | 0.00 | 60 | 1019.2 |
| 20260831184624 | 32 | 53 | 3.2 | 8.0 | 0.00 | 0.00 | 0.00 | 60 | 1019.3 |
| 20260831184536 | 32 | 53 | 4.8 | 8.0 | 0.00 | 0.00 | 0.00 | 60 | 1019.3 |
| 20260831184444 | 32 | 46 | 6.4 | 8.0 | 0.00 | 0.00 | 0.00 | 60 | 1019.2 |
| 20260831184330 | 32 | 39 | 4.8 | 8.0 | 0.00 | 0.00 | 0.00 | 61 | 1019.2 |
| 20260831184238 | 32 | 16 | 4.8 | 6.4 | 0.00 | 0.00 | 0.00 | 62 | 1019.4 |
| 20260831184126 | 32 | 355 | 3.2 | 6.4 | 0.00 | 0.00 | 0.00 | 62 | 1019.3 |
| 20260831184033 | 32 | 335 | 3.2 | 6.4 | 0.00 | 0.00 | 0.00 | 63 | 1019.4 |
| 20260831183945 | 32 | 319 | 3.2 | 9.7 | 0.00 | 0.00 | 0.00 | 62 | 1019.4 |
| 20260831183831 | 32 | 321 | 3.2 | 9.7 | 0.00 | 0.00 | 0.00 | 61 | 1019.4 |
| 20260831183738 | 32 | 321 | 4.8 | 9.7 | 0.00 | 0.00 | 0.00 | 61 | 1019.4 |
| 20260831183627 | 32 | 317 | 3.2 | 9.7 | 0.00 | 0.00 | 0.00 | 62 | 1019.4 |
| 20260831183534 | 32 | 5 | 3.2 | 9.7 | 0.00 | 0.00 | 0.00 | 62 | 1019.5 |
| 20260831183500 | 32 | 44 | 3.2 | 9.7 | 0.00 | 0.00 | 0.00 | 62 | 1019.5 |
| 20260831183412 | 32 | 44 | 4.8 | 9.7 | 0.00 | 0.00 | 0.00 | 63 | 1019.4 |
| 20260831183125 | 32 | 19 | 6.4 | 9.7 | 0.00 | 0.00 | 0.00 | 63 | 1019.5 |
| 20260831183053 | 32 | 30 | 4.8 | 9.7 | 0.00 | 0.00 | 0.00 | 63 | 1019.5 |
| 20260831182940 | 32 | 5 | 4.8 | 9.7 | 0.00 | 0.00 | 0.00 | 63 | 1019.5 |
| 20260831182827 | 32 | 350 | 4.8 | 9.7 | 0.00 | 0.00 | 0.00 | 64 | 1019.6 |
| 20260831182738 | 32 | 355 | 6.4 | 9.7 | 0.00 | 0.00 | 0.00 | 63 | 1019.6 |
| 20260831182626 | 32 | 22 | 4.8 | 8.0 | 0.00 | 0.00 | 0.00 | 62 | 1019.7 |
| 20260831182554 | 32 | 360 | 4.8 | 8.0 | 0.00 | 0.00 | 0.00 | 62 | 1019.6 |
| 20260831182421 | 32 | 5 | 3.2 | 8.0 | 0.00 | 0.00 | 0.00 | 62 | 1019.6 |
| 20260831182330 | 32 | 13 | 3.2 | 8.0 | 0.00 | 0.00 | 0.00 | 62 | 1019.7 |
| 20260831182257 | 32 | 9 | 3.2 | 8.0 | 0.00 | 0.00 | 0.00 | 62 | 1019.7 |
| 20260831182128 | 32 | 360 | 4.8 | 8.0 | 0.00 | 0.00 | 0.00 | 61 | 1019.7 |
| 20260831182036 | 32 | 39 | 4.8 | 8.0 | 0.00 | 0.00 | 0.00 | 61 | 1019.7 |
| 20260831182004 | 32 | 53 | 4.8 | 8.0 | 0.00 | 0.00 | 0.00 | 62 | 1019.7 |
| 20260831181934 | 32 | 36 | 4.8 | 8.0 | 0.00 | 0.00 | 0.00 | 63 | 1019.7 |
| 20260831181646 | 32 | 351 | 3.2 | 8.0 | 0.00 | 0.00 | 0.00 | 62 | 1019.7 |
| 20260831181536 | 32 | 5 | 3.2 | 8.0 | 0.00 | 0.00 | 0.00 | 61 | 1019.7 |
| 20260831181423 | 32 | 62 | 3.2 | 8.0 | 0.00 | 0.00 | 0.00 | 61 | 1019.7 |
| 20260831181331 | 32 | 43 | 4.8 | 8.0 | 0.00 | 0.00 | 0.00 | 61 | 1019.7 |
| 20260831181237 | 32 | 66 | 4.8 | 8.0 | 0.00 | 0.00 | 0.00 | 61 | 1019.7 |
| 20260831181125 | 32 | 49 | 4.8 | 8.0 | 0.00 | 0.00 | 0.00 | 63 | 1019.6 |
| 20260831181032 | 32 | 5 | 4.8 | 8.0 | 0.00 | 0.00 | 0.00 | 63 | 1019.7 |
| 20260831180923 | 32 | 311 | 4.8 | 8.0 | 0.00 | 0.00 | 0.00 | 63 | 1019.6 |
| 20260831180830 | 32 | 327 | 6.4 | 8.0 | 0.00 | 0.00 | 0.00 | 64 | 1019.7 |
| 20260831180737 | 32 | 335 | 6.4 | 8.0 | 0.00 | 0.00 | 0.00 | 63 | 1019.6 |
| 20260831180623 | 32 | 17 | 6.4 | 8.0 | 0.00 | 0.00 | 0.00 | 64 | 1019.7 |
| 20260831180532 | 32 | 360 | 4.8 | 8.0 | 0.00 | 0.00 | 0.00 | 63 | 1019.7 |
| 20260831180423 | 32 | 310 | 4.8 | 8.0 | 0.00 | 0.00 | 0.00 | 63 | 1019.6 |
| 20260831180354 | 32 | 320 | 3.2 | 8.0 | 0.00 | 0.00 | 0.00 | 62 | 1019.6 |
| 20260831180127 | 32 | 322 | 3.2 | 8.0 | 0.00 | 0.00 | 0.00 | 62 | 1019.8 |
| 20260831180054 | 32 | 283 | 3.2 | 8.0 | 0.00 | 0.00 | 0.00 | 61 | 1019.8 |
| 20260831175921 | 32 | 216 | 3.2 | 8.0 | 0.00 | 0.00 | 0.00 | 61 | 1019.8 |
| 20260831175833 | 32 | 216 | 3.2 | 8.0 | 0.00 | 0.00 | 0.00 | 61 | 1019.9 |
| 20260831175739 | 32 | 207 | 4.8 | 8.0 | 0.00 | 0.00 | 0.00 | 61 | 1019.8 |
| 20260831175626 | 32 | 182 | 4.8 | 8.0 | 0.00 | 0.00 | 0.00 | 61 | 1019.8 |
| 20260831175535 | 32 | 167 | 3.2 | 6.4 | 0.00 | 0.00 | 0.00 | 62 | 1019.9 |
| 20260831175442 | 32 | 184 | 1.6 | 4.8 | 0.00 | 0.00 | 0.00 | 61 | 1019.9 |
| 20260831175328 | 32 | 217 | 1.6 | 4.8 | 0.00 | 0.00 | 0.00 | 61 | 1020.0 |
| 20260831175219 | 32 | 208 | 1.6 | 4.8 | 0.00 | 0.00 | 0.00 | 61 | 1020.0 |
| 20260831175147 | 32 | 273 | 1.6 | 4.8 | 0.00 | 0.00 | 0.00 | 61 | 1019.9 |
| 20260831175033 | 32 | 273 | 3.2 | 4.8 | 0.00 | 0.00 | 0.00 | 61 | 1019.9 |
| 20260831175001 | 32 | 273 | 3.2 | 4.8 | 0.00 | 0.00 | 0.00 | 61 | 1019.9 |
| 20260831174931 | 32 | 273 | 3.2 | 4.8 | 0.00 | 0.00 | 0.00 | 62 | 1019.9 |
| 20260831174627 | 32 | 275 | 1.6 | 4.8 | 0.00 | 0.00 | 0.00 | 61 | 1020.0 |
| 20260831174535 | 32 | 263 | 0.0 | 4.8 | 0.00 | 0.00 | 0.00 | 62 | 1020.0 |
| 20260831174442 | 32 | 206 | 1.6 | 4.8 | 0.00 | 0.00 | 0.00 | 62 | 1019.9 |
| 20260831174348 | 32 | 206 | 1.6 | 6.4 | 0.00 | 0.00 | 0.00 | 61 | 1020.1 |
| 20260831174254 | 32 | 206 | 3.2 | 6.4 | 0.00 | 0.00 | 0.00 | 62 | 1020.1 |
| 20260831174121 | 32 | 153 | 1.6 | 6.4 | 0.00 | 0.00 | 0.00 | 61 | 1020.1 |
| 20260831174029 | 32 | 155 | 1.6 | 6.4 | 0.00 | 0.00 | 0.00 | 62 | 1020.1 |
| 20260831173921 | 32 | 271 | 1.6 | 6.4 | 0.00 | 0.00 | 0.00 | 62 | 1020.2 |
| 20260831173827 | 32 | 276 | 0.0 | 6.4 | 0.00 | 0.00 | 0.00 | 63 | 1020.1 |
| 20260831173734 | 32 | 32 | 1.6 | 6.4 | 0.00 | 0.00 | 0.00 | 64 | 1020.1 |
| 20260831173621 | 32 | 32 | 3.2 | 6.4 | 0.00 | 0.00 | 0.00 | 60 | 1020.1 |
| 20260831173549 | 32 | 5 | 3.2 | 6.4 | 0.00 | 0.00 | 0.00 | 60 | 1020.1 |
| 20260831173436 | 32 | 355 | 1.6 | 9.7 | 0.00 | 0.00 | 0.00 | 61 | 1020.2 |
| 20260831173410 | 32 | 342 | 1.6 | 9.7 | 0.00 | 0.00 | 0.00 | 61 | 1020.2 |
| 20260831173125 | 32 | 245 | 3.2 | 9.7 | 0.00 | 0.00 | 0.00 | 59 | 1020.2 |
| 20260831173052 | 32 | 273 | 3.2 | 9.7 | 0.00 | 0.00 | 0.00 | 62 | 1020.1 |
| 20260831172938 | 32 | 290 | 3.2 | 9.7 | 0.00 | 0.00 | 0.00 | 61 | 1020.2 |
| 20260831172824 | 32 | 155 | 3.2 | 9.7 | 0.00 | 0.00 | 0.00 | 60 | 1020.3 |
| 20260831172736 | 32 | 199 | 3.2 | 9.7 | 0.00 | 0.00 | 0.00 | 61 | 1020.2 |
| 20260831172624 | 32 | 173 | 6.4 | 9.7 | 0.00 | 0.00 | 0.00 | 63 | 1020.2 |
| 20260831172531 | 32 | 202 | 4.8 | 12.9 | 0.00 | 0.00 | 0.00 | 63 | 1020.3 |
| 20260831172439 | 32 | 192 | 4.8 | 12.9 | 0.00 | 0.00 | 0.00 | 61 | 1020.3 |
| 20260831172346 | 32 | 232 | 3.2 | 12.9 | 0.00 | 0.00 | 0.00 | 63 | 1020.2 |
| 20260831172252 | 32 | 180 | 3.2 | 12.9 | 0.00 | 0.00 | 0.00 | 61 | 1020.2 |
| 20260831172123 | 32 | 76 | 4.8 | 12.9 | 0.00 | 0.00 | 0.00 | 61 | 1020.3 |
| 20260831172031 | 32 | 112 | 4.8 | 19.3 | 0.00 | 0.00 | 0.00 | 61 | 1020.3 |
| 20260831171959 | 32 | 113 | 6.4 | 19.3 | 0.00 | 0.00 | 0.00 | 60 | 1020.4 |
| 20260831171908 | 32 | 129 | 6.4 | 19.3 | 0.00 | 0.00 | 0.00 | 62 | 1020.4 |
| 20260831171622 | 32 | 162 | 6.4 | 19.3 | 0.00 | 0.00 | 0.00 | 61 | 1020.3 |
| 20260831171535 | 32 | 139 | 4.8 | 19.3 | 0.00 | 0.00 | 0.00 | 60 | 1020.3 |
| 20260831171442 | 32 | 173 | 3.2 | 19.3 | 0.00 | 0.00 | 0.00 | 60 | 1020.2 |
| 20260831171329 | 32 | 185 | 8.0 | 19.3 | 0.00 | 0.00 | 0.00 | 60 | 1020.2 |
| 20260831171236 | 32 | 141 | 9.7 | 19.3 | 0.00 | 0.00 | 0.00 | 61 | 1020.4 |
| 20260831171123 | 32 | 188 | 6.4 | 20.9 | 0.00 | 0.00 | 0.00 | 62 | 1020.3 |
| 20260831171031 | 32 | 188 | 4.8 | 11.3 | 0.00 | 0.00 | 0.00 | 63 | 1020.4 |
| 20260831170923 | 32 | 232 | 6.4 | 11.3 | 0.00 | 0.00 | 0.00 | 64 | 1020.4 |
| 20260831170831 | 32 | 194 | 6.4 | 11.3 | 0.00 | 0.00 | 0.00 | 64 | 1020.4 |
| 20260831170720 | 32 | 190 | 6.4 | 11.3 | 0.00 | 0.00 | 0.00 | 62 | 1020.4 |
| 20260831170628 | 32 | 217 | 6.4 | 11.3 | 0.00 | 0.00 | 0.00 | 61 | 1020.4 |
| 20260831170536 | 32 | 259 | 6.4 | 11.3 | 0.00 | 0.00 | 0.00 | 62 | 1020.4 |
| 20260831170447 | 32 | 219 | 3.2 | 16.1 | 0.00 | 0.00 | 0.00 | 62 | 1020.4 |
| 20260831170356 | 32 | 162 | 3.2 | 16.1 | 0.00 | 0.00 | 0.00 | 62 | 1020.4 |
| 20260831170128 | 32 | 311 | 3.2 | 16.1 | 0.00 | 0.00 | 0.00 | 62 | 1020.5 |
| 20260831170036 | 32 | 315 | 6.4 | 16.1 | 0.00 | 0.00 | 0.00 | 65 | 1020.4 |
| 20260831165923 | 32 | 213 | 8.0 | 16.1 | 0.00 | 0.00 | 0.00 | 63 | 1020.5 |
| 20260831165836 | 32 | 197 | 4.8 | 16.1 | 0.00 | 0.00 | 0.00 | 65 | 1020.6 |
| 20260831165723 | 31 | 168 | 4.8 | 16.1 | 0.00 | 0.00 | 0.00 | 64 | 1020.5 |
| 20260831165630 | 31 | 177 | 8.0 | 16.1 | 0.00 | 0.00 | 0.00 | 64 | 1020.6 |
| 20260831165536 | 31 | 186 | 11.3 | 16.1 | 0.00 | 0.00 | 0.00 | 65 | 1020.5 |
| 20260831165424 | 31 | 237 | 12.9 | 16.1 | 0.00 | 0.00 | 0.00 | 65 | 1020.5 |
| 20260831165331 | 31 | 171 | 12.9 | 16.1 | 0.00 | 0.00 | 0.00 | 65 | 1020.5 |
| 20260831165223 | 31 | 171 | 8.0 | 14.5 | 0.00 | 0.00 | 0.00 | 64 | 1020.5 |
| 20260831165130 | 31 | 171 | 6.4 | 14.5 | 0.00 | 0.00 | 0.00 | 68 | 1020.5 |
| 20260831165037 | 31 | 126 | 4.8 | 14.5 | 0.00 | 0.00 | 0.00 | 66 | 1020.5 |
| 20260831164925 | 31 | 118 | 6.4 | 14.5 | 0.00 | 0.00 | 0.00 | 65 | 1020.6 |
| 20260831164859 | 31 | 132 | 6.4 | 14.5 | 0.00 | 0.00 | 0.00 | 65 | 1020.6 |
| 20260831164632 | 31 | 137 | 6.4 | 14.5 | 0.00 | 0.00 | 0.00 | 68 | 1020.6 |
| 20260831164520 | 31 | 162 | 3.2 | 9.7 | 0.00 | 0.00 | 0.00 | 65 | 1020.6 |
| 20260831164447 | 31 | 225 | 0.0 | 9.7 | 0.00 | 0.00 | 0.00 | 65 | 1020.5 |
| 20260831164335 | 31 | 247 | 1.6 | 9.7 | 0.00 | 0.00 | 0.00 | 65 | 1020.6 |
| 20260831164221 | 31 | 247 | 1.6 | 11.3 | 0.00 | 0.00 | 0.00 | 65 | 1020.5 |
| 20260831164132 | 31 | 244 | 1.6 | 11.3 | 0.00 | 0.00 | 0.00 | 64 | 1020.5 |
| 20260831164020 | 31 | 208 | 1.6 | 11.3 | 0.00 | 0.00 | 0.00 | 64 | 1020.5 |
| 20260831163928 | 31 | 236 | 1.6 | 11.3 | 0.00 | 0.00 | 0.00 | 64 | 1020.5 |
| 20260831163835 | 31 | 236 | 3.2 | 11.3 | 0.00 | 0.00 | 0.00 | 65 | 1020.5 |
| 20260831163722 | 31 | 231 | 6.4 | 11.3 | 0.00 | 0.00 | 0.00 | 65 | 1020.6 |
| 20260831163634 | 31 | 207 | 6.4 | 11.3 | 0.00 | 0.00 | 0.00 | 67 | 1020.7 |
| 20260831163520 | 31 | 178 | 8.0 | 11.3 | 0.00 | 0.00 | 0.00 | 66 | 1020.6 |
| 20260831163428 | 31 | 193 | 8.0 | 11.3 | 0.00 | 0.00 | 0.00 | 66 | 1020.6 |
| 20260831163359 | 31 | 144 | 6.4 | 11.3 | 0.00 | 0.00 | 0.00 | 68 | 1020.6 |
| 20260831163133 | 31 | 192 | 4.8 | 11.3 | 0.00 | 0.00 | 0.00 | 67 | 1020.6 |
| 20260831163025 | 31 | 195 | 1.6 | 11.3 | 0.00 | 0.00 | 0.00 | 66 | 1020.7 |
| 20260831162933 | 31 | 245 | 1.6 | 12.9 | 0.00 | 0.00 | 0.00 | 66 | 1020.6 |
| 20260831162901 | 31 | 265 | 1.6 | 12.9 | 0.00 | 0.00 | 0.00 | 65 | 1020.7 |
| 20260831162726 | 31 | 290 | 4.8 | 12.9 | 0.00 | 0.00 | 0.00 | 66 | 1020.6 |
| 20260831162634 | 31 | 245 | 6.4 | 12.9 | 0.00 | 0.00 | 0.00 | 66 | 1020.7 |
| 20260831162526 | 31 | 257 | 4.8 | 12.9 | 0.00 | 0.00 | 0.00 | 66 | 1020.7 |
| 20260831162434 | 31 | 245 | 6.4 | 16.1 | 0.00 | 0.00 | 0.00 | 66 | 1020.6 |
| 20260831162321 | 31 | 221 | 8.0 | 16.1 | 0.00 | 0.00 | 0.00 | 65 | 1020.7 |
| 20260831162229 | 31 | 175 | 8.0 | 16.1 | 0.00 | 0.00 | 0.00 | 66 | 1020.7 |
| 20260831162136 | 31 | 186 | 8.0 | 16.1 | 0.00 | 0.00 | 0.00 | 66 | 1020.7 |
| 20260831162022 | 31 | 196 | 8.0 | 16.1 | 0.00 | 0.00 | 0.00 | 65 | 1020.6 |
| 20260831161933 | 31 | 216 | 6.4 | 16.1 | 0.00 | 0.00 | 0.00 | 65 | 1020.7 |
| 20260831161903 | 31 | 195 | 8.0 | 16.1 | 0.00 | 0.00 | 0.00 | 65 | 1020.7 |
| 20260831161637 | 31 | 204 | 9.7 | 16.1 | 0.00 | 0.00 | 0.00 | 65 | 1020.6 |
| 20260831161524 | 31 | 186 | 6.4 | 16.1 | 0.00 | 0.00 | 0.00 | 65 | 1020.5 |
| 20260831161436 | 31 | 162 | 3.2 | 12.9 | 0.00 | 0.00 | 0.00 | 65 | 1020.6 |
| 20260831161322 | 31 | 334 | 6.4 | 12.9 | 0.00 | 0.00 | 0.00 | 65 | 1020.6 |
| 20260831161230 | 31 | 268 | 8.0 | 12.9 | 0.00 | 0.00 | 0.00 | 67 | 1020.7 |
| 20260831161139 | 31 | 200 | 8.0 | 12.9 | 0.00 | 0.00 | 0.00 | 68 | 1020.6 |
| 20260831161026 | 31 | 219 | 6.4 | 12.9 | 0.00 | 0.00 | 0.00 | 67 | 1020.7 |
| 20260831160934 | 31 | 275 | 4.8 | 12.9 | 0.00 | 0.00 | 0.00 | 68 | 1020.7 |
| 20260831160827 | 31 | 175 | 3.2 | 12.9 | 0.00 | 0.00 | 0.00 | 67 | 1020.7 |
| 20260831160734 | 31 | 200 | 6.4 | 12.9 | 0.00 | 0.00 | 0.00 | 67 | 1020.8 |
| 20260831160701 | 31 | 171 | 8.0 | 12.9 | 0.00 | 0.00 | 0.00 | 66 | 1020.7 |
| 20260831160527 | 31 | 196 | 6.4 | 12.9 | 0.00 | 0.00 | 0.00 | 69 | 1020.7 |
| 20260831160434 | 31 | 199 | 6.4 | 9.7 | 0.00 | 0.00 | 0.00 | 69 | 1020.7 |
| 20260831160408 | 31 | 203 | 6.4 | 9.7 | 0.00 | 0.00 | 0.00 | 68 | 1020.7 |
| 20260831160121 | 31 | 272 | 4.8 | 11.3 | 0.00 | 0.00 | 0.00 | 69 | 1020.8 |
| 20260831160029 | 31 | 290 | 4.8 | 14.5 | 0.00 | 0.00 | 0.00 | 69 | 1020.7 |
| 20260831155936 | 31 | 344 | 4.8 | 14.5 | 0.00 | 0.00 | 0.00 | 68 | 1020.8 |
| 20260831155822 | 31 | 280 | 4.8 | 14.5 | 0.00 | 0.00 | 0.00 | 68 | 1020.8 |
| 20260831155734 | 31 | 220 | 6.4 | 14.5 | 0.00 | 0.00 | 0.00 | 68 | 1020.8 |
| 20260831155621 | 31 | 277 | 6.4 | 14.5 | 0.00 | 0.00 | 0.00 | 68 | 1020.8 |
| 20260831155528 | 31 | 213 | 4.8 | 14.5 | 0.00 | 0.00 | 0.00 | 69 | 1020.8 |
| 20260831155436 | 31 | 262 | 4.8 | 14.5 | 0.00 | 0.00 | 0.00 | 68 | 1020.7 |
| 20260831155322 | 31 | 268 | 6.4 | 14.5 | 0.00 | 0.00 | 0.00 | 69 | 1020.8 |
| 20260831155230 | 31 | 234 | 8.0 | 14.5 | 0.00 | 0.00 | 0.00 | 68 | 1020.7 |
| 20260831155121 | 31 | 229 | 8.0 | 16.1 | 0.00 | 0.00 | 0.00 | 69 | 1020.8 |
| 20260831155029 | 31 | 271 | 4.8 | 14.5 | 0.00 | 0.00 | 0.00 | 69 | 1020.8 |
| 20260831154936 | 31 | 243 | 3.2 | 14.5 | 0.00 | 0.00 | 0.00 | 70 | 1020.8 |
| 20260831154908 | 31 | 247 | 4.8 | 14.5 | 0.00 | 0.00 | 0.00 | 70 | 1020.8 |
| 20260831154625 | 31 | 174 | 8.0 | 14.5 | 0.00 | 0.00 | 0.00 | 70 | 1020.8 |
| 20260831154532 | 31 | 223 | 6.4 | 14.5 | 0.00 | 0.00 | 0.00 | 70 | 1020.8 |
| 20260831154420 | 31 | 232 | 6.4 | 14.5 | 0.00 | 0.00 | 0.00 | 69 | 1020.8 |
| 20260831154328 | 31 | 229 | 9.7 | 14.5 | 0.00 | 0.00 | 0.00 | 70 | 1020.8 |
| 20260831154236 | 31 | 234 | 8.0 | 14.5 | 0.00 | 0.00 | 0.00 | 70 | 1020.8 |
| 20260831154143 | 31 | 117 | 4.8 | 12.9 | 0.00 | 0.00 | 0.00 | 71 | 1020.9 |
| 20260831154033 | 31 | 165 | 4.8 | 12.9 | 0.00 | 0.00 | 0.00 | 71 | 1020.8 |
| 20260831153920 | 31 | 196 | 4.8 | 12.9 | 0.00 | 0.00 | 0.00 | 70 | 1020.8 |
| 20260831153828 | 31 | 167 | 4.8 | 12.9 | 0.00 | 0.00 | 0.00 | 70 | 1020.8 |
| 20260831153755 | 31 | 202 | 6.4 | 12.9 | 0.00 | 0.00 | 0.00 | 69 | 1020.8 |
| 20260831153622 | 31 | 249 | 8.0 | 12.9 | 0.00 | 0.00 | 0.00 | 70 | 1020.8 |
| 20260831153530 | 31 | 239 | 6.4 | 12.9 | 0.00 | 0.00 | 0.00 | 70 | 1020.8 |
| 20260831153440 | 31 | 180 | 6.4 | 12.9 | 0.00 | 0.00 | 0.00 | 69 | 1020.7 |
| 20260831153410 | 31 | 237 | 4.8 | 12.9 | 0.00 | 0.00 | 0.00 | 71 | 1020.7 |
| 20260831153122 | 30 | 275 | 3.2 | 12.9 | 0.00 | 0.00 | 0.00 | 70 | 1020.8 |
| 20260831153029 | 30 | 213 | 4.8 | 12.9 | 0.00 | 0.00 | 0.00 | 71 | 1020.7 |
| 20260831152920 | 30 | 331 | 6.4 | 12.9 | 0.00 | 0.00 | 0.00 | 71 | 1020.7 |
| 20260831152829 | 30 | 211 | 8.0 | 12.9 | 0.00 | 0.00 | 0.00 | 72 | 1020.7 |
| 20260831152737 | 30 | 173 | 9.7 | 12.9 | 0.00 | 0.00 | 0.00 | 71 | 1020.7 |
| 20260831152624 | 30 | 213 | 6.4 | 12.9 | 0.00 | 0.00 | 0.00 | 71 | 1020.7 |
| 20260831152531 | 30 | 212 | 6.4 | 12.9 | 0.00 | 0.00 | 0.00 | 71 | 1020.7 |
| 20260831152421 | 30 | 220 | 3.2 | 17.7 | 0.00 | 0.00 | 0.00 | 71 | 1020.7 |
| 20260831152327 | 30 | 323 | 3.2 | 17.7 | 0.00 | 0.00 | 0.00 | 70 | 1020.6 |
| 20260831152235 | 30 | 92 | 4.8 | 17.7 | 0.00 | 0.00 | 0.00 | 75 | 1020.7 |
| 20260831152142 | 30 | 181 | 4.8 | 17.7 | 0.00 | 0.00 | 0.00 | 74 | 1020.7 |
| 20260831152028 | 30 | 217 | 4.8 | 17.7 | 0.00 | 0.00 | 0.00 | 73 | 1020.7 |
| 20260831151936 | 30 | 133 | 6.4 | 17.7 | 0.00 | 0.00 | 0.00 | 72 | 1020.7 |
| 20260831151910 | 30 | 150 | 6.4 | 17.7 | 0.00 | 0.00 | 0.00 | 72 | 1020.7 |
| 20260831151623 | 30 | 223 | 11.3 | 17.7 | 0.00 | 0.00 | 0.00 | 72 | 1020.7 |
| 20260831151530 | 30 | 182 | 11.3 | 17.7 | 0.00 | 0.00 | 0.00 | 72 | 1020.8 |
| 20260831151458 | 30 | 164 | 9.7 | 14.5 | 0.00 | 0.00 | 0.00 | 72 | 1020.8 |
| 20260831151322 | 30 | 183 | 6.4 | 14.5 | 0.00 | 0.00 | 0.00 | 73 | 1020.7 |
| 20260831151231 | 30 | 227 | 6.4 | 14.5 | 0.00 | 0.00 | 0.00 | 72 | 1020.7 |
| 20260831151200 | 30 | 207 | 8.0 | 14.5 | 0.00 | 0.00 | 0.00 | 72 | 1020.7 |
| 20260831151025 | 30 | 140 | 4.8 | 14.5 | 0.00 | 0.00 | 0.00 | 73 | 1020.8 |
| 20260831150953 | 30 | 151 | 4.8 | 14.5 | 0.00 | 0.00 | 0.00 | 73 | 1020.8 |
| 20260831150859 | 30 | 165 | 8.0 | 14.5 | 0.00 | 0.00 | 0.00 | 72 | 1020.8 |
| 20260831150725 | 30 | 213 | 8.0 | 14.5 | 0.00 | 0.00 | 0.00 | 73 | 1020.7 |
| 20260831150634 | 30 | 190 | 8.0 | 14.5 | 0.00 | 0.00 | 0.00 | 73 | 1020.7 |
| 20260831150526 | 30 | 160 | 8.0 | 16.1 | 0.00 | 0.00 | 0.00 | 72 | 1020.8 |
| 20260831150432 | 30 | 168 | 8.0 | 16.1 | 0.00 | 0.00 | 0.00 | 74 | 1020.7 |
| 20260831150403 | 30 | 142 | 8.0 | 16.1 | 0.00 | 0.00 | 0.00 | 74 | 1020.7 |
| 20260831150137 | 30 | 144 | 6.4 | 16.1 | 0.00 | 0.00 | 0.00 | 74 | 1020.8 |
| 20260831150027 | 30 | 150 | 6.4 | 16.1 | 0.00 | 0.00 | 0.00 | 73 | 1020.7 |
| 20260831145935 | 29 | 196 | 8.0 | 16.1 | 0.00 | 0.00 | 0.00 | 74 | 1020.7 |
| 20260831145823 | 29 | 215 | 11.3 | 16.1 | 0.00 | 0.00 | 0.00 | 73 | 1020.7 |
| 20260831145750 | 29 | 205 | 9.7 | 16.1 | 0.00 | 0.00 | 0.00 | 73 | 1020.8 |
| 20260831145656 | 29 | 179 | 6.4 | 16.1 | 0.00 | 0.00 | 0.00 | 74 | 1020.7 |
| 20260831145522 | 29 | 186 | 1.6 | 16.1 | 0.00 | 0.00 | 0.00 | 74 | 1020.8 |
| 20260831145431 | 29 | 179 | 3.2 | 16.1 | 0.00 | 0.00 | 0.00 | 73 | 1020.8 |
| 20260831145342 | 29 | 169 | 6.4 | 16.1 | 0.00 | 0.00 | 0.00 | 73 | 1020.7 |
| 20260831145227 | 29 | 172 | 8.0 | 16.1 | 0.00 | 0.00 | 0.00 | 73 | 1020.8 |
| 20260831145135 | 29 | 198 | 9.7 | 17.7 | 0.00 | 0.00 | 0.00 | 74 | 1020.8 |
| 20260831145022 | 29 | 209 | 9.7 | 17.7 | 0.00 | 0.00 | 0.00 | 74 | 1020.8 |
| 20260831144950 | 29 | 203 | 11.3 | 17.7 | 0.00 | 0.00 | 0.00 | 73 | 1020.8 |
| 20260831144922 | 29 | 158 | 9.7 | 17.7 | 0.00 | 0.00 | 0.00 | 73 | 1020.8 |
| 20260831144636 | 29 | 173 | 6.4 | 17.7 | 0.00 | 0.00 | 0.00 | 75 | 1020.8 |
| 20260831144523 | 29 | 163 | 8.0 | 17.7 | 0.00 | 0.00 | 0.00 | 74 | 1020.8 |
| 20260831144431 | 29 | 252 | 11.3 | 17.7 | 0.00 | 0.00 | 0.00 | 73 | 1020.8 |
| 20260831144339 | 29 | 172 | 12.9 | 17.7 | 0.00 | 0.00 | 0.00 | 73 | 1020.7 |
| 20260831144231 | 29 | 215 | 11.3 | 16.1 | 0.00 | 0.00 | 0.00 | 73 | 1020.8 |
| 20260831144139 | 29 | 194 | 11.3 | 17.7 | 0.00 | 0.00 | 0.00 | 73 | 1020.7 |
| 20260831144046 | 29 | 188 | 11.3 | 17.7 | 0.00 | 0.00 | 0.00 | 73 | 1020.8 |
| 20260831143932 | 29 | 248 | 9.7 | 17.7 | 0.00 | 0.00 | 0.00 | 73 | 1020.7 |
| 20260831143820 | 29 | 223 | 8.0 | 17.7 | 0.00 | 0.00 | 0.00 | 73 | 1020.8 |
| 20260831143727 | 29 | 191 | 9.7 | 17.7 | 0.00 | 0.00 | 0.00 | 73 | 1020.8 |
| 20260831143634 | 29 | 176 | 9.7 | 17.7 | 0.00 | 0.00 | 0.00 | 73 | 1020.8 |
| 20260831143525 | 29 | 205 | 9.7 | 17.7 | 0.00 | 0.00 | 0.00 | 73 | 1020.8 |
| 20260831143453 | 29 | 251 | 11.3 | 17.7 | 0.00 | 0.00 | 0.00 | 73 | 1020.8 |
| 20260831143402 | 29 | 221 | 9.7 | 17.7 | 0.00 | 0.00 | 0.00 | 73 | 1020.8 |
| 20260831143155 | 29 | 197 | 8.0 | 17.7 | 0.00 | 0.00 | 0.00 | 73 | 1020.7 |
| 20260831143022 | 29 | 167 | 4.8 | 14.5 | 0.00 | 0.00 | 0.00 | 75 | 1020.7 |
| 20260831142933 | 29 | 188 | 3.2 | 14.5 | 0.00 | 0.00 | 0.00 | 74 | 1020.8 |
| 20260831142821 | 29 | 166 | 4.8 | 14.5 | 0.00 | 0.00 | 0.00 | 74 | 1020.8 |
| 20260831142727 | 29 | 190 | 8.0 | 14.5 | 0.00 | 0.00 | 0.00 | 73 | 1020.7 |
| 20260831142634 | 29 | 180 | 6.4 | 14.5 | 0.00 | 0.00 | 0.00 | 73 | 1020.7 |
| 20260831142520 | 29 | 190 | 4.8 | 14.5 | 0.00 | 0.00 | 0.00 | 73 | 1020.7 |
| 20260831142431 | 29 | 170 | 8.0 | 14.5 | 0.00 | 0.00 | 0.00 | 73 | 1020.7 |
| 20260831142339 | 29 | 146 | 8.0 | 14.5 | 0.00 | 0.00 | 0.00 | 73 | 1020.7 |
| 20260831142245 | 29 | 124 | 9.7 | 14.5 | 0.00 | 0.00 | 0.00 | 75 | 1020.7 |
| 20260831142151 | 29 | 144 | 9.7 | 14.5 | 0.00 | 0.00 | 0.00 | 74 | 1020.7 |
| 20260831142038 | 29 | 209 | 8.0 | 14.5 | 0.00 | 0.00 | 0.00 | 74 | 1020.8 |
| 20260831141925 | 29 | 205 | 8.0 | 14.5 | 0.00 | 0.00 | 0.00 | 74 | 1020.7 |
| 20260831141859 | 29 | 195 | 6.4 | 16.1 | 0.00 | 0.00 | 0.00 | 73 | 1020.7 |
| 20260831141633 | 29 | 223 | 8.0 | 16.1 | 0.00 | 0.00 | 0.00 | 74 | 1020.7 |
| 20260831141540 | 28 | 178 | 8.0 | 16.1 | 0.00 | 0.00 | 0.00 | 74 | 1020.7 |
| 20260831141427 | 28 | 205 | 6.4 | 16.1 | 0.00 | 0.00 | 0.00 | 74 | 1020.7 |
| 20260831141334 | 28 | 212 | 8.0 | 16.1 | 0.00 | 0.00 | 0.00 | 74 | 1020.6 |
| 20260831141226 | 28 | 178 | 8.0 | 16.1 | 0.00 | 0.00 | 0.00 | 75 | 1020.8 |
| 20260831141135 | 28 | 177 | 9.7 | 16.1 | 0.00 | 0.00 | 0.00 | 75 | 1020.7 |
| 20260831141021 | 28 | 157 | 11.3 | 16.1 | 0.00 | 0.00 | 0.00 | 75 | 1020.7 |
| 20260831140929 | 28 | 134 | 9.7 | 16.1 | 0.00 | 0.00 | 0.00 | 75 | 1020.7 |
| 20260831140837 | 28 | 165 | 11.3 | 16.1 | 0.00 | 0.00 | 0.00 | 75 | 1020.7 |
| 20260831140727 | 28 | 118 | 9.7 | 16.1 | 0.00 | 0.00 | 0.00 | 74 | 1020.7 |
| 20260831140635 | 28 | 87 | 9.7 | 16.1 | 0.00 | 0.00 | 0.00 | 76 | 1020.7 |
| 20260831140522 | 28 | 132 | 8.0 | 12.9 | 0.00 | 0.00 | 0.00 | 76 | 1020.6 |
| 20260831140428 | 28 | 155 | 4.8 | 12.9 | 0.00 | 0.00 | 0.00 | 77 | 1020.6 |
| 20260831140358 | 28 | 161 | 4.8 | 11.3 | 0.00 | 0.00 | 0.00 | 75 | 1020.6 |
| 20260831140137 | 28 | 179 | 4.8 | 9.7 | 0.00 | 0.00 | 0.00 | 76 | 1020.7 |
| 20260831140025 | 28 | 192 | 6.4 | 11.3 | 0.00 | 0.00 | 0.00 | 76 | 1020.7 |
| 20260831135953 | 28 | 194 | 6.4 | 16.1 | 0.00 | 0.00 | 0.00 | 76 | 1020.7 |
| 20260831135839 | 28 | 189 | 6.4 | 16.1 | 0.00 | 0.00 | 0.00 | 76 | 1020.7 |
| 20260831135747 | 28 | 178 | 6.4 | 16.1 | 0.00 | 0.00 | 0.00 | 77 | 1020.7 |
| 20260831135654 | 28 | 180 | 6.4 | 16.1 | 0.00 | 0.00 | 0.00 | 77 | 1020.8 |
| 20260831135539 | 28 | 196 | 4.8 | 16.1 | 0.00 | 0.00 | 0.00 | 78 | 1020.7 |
| 20260831135430 | 28 | 153 | 4.8 | 16.1 | 0.00 | 0.00 | 0.00 | 78 | 1020.7 |
| 20260831135336 | 28 | 160 | 6.4 | 16.1 | 0.00 | 0.00 | 0.00 | 77 | 1020.7 |
| 20260831135224 | 28 | 99 | 9.7 | 16.1 | 0.00 | 0.00 | 0.00 | 77 | 1020.8 |
| 20260831135131 | 28 | 211 | 8.0 | 16.1 | 0.00 | 0.00 | 0.00 | 77 | 1020.7 |
| 20260831135038 | 28 | 188 | 6.4 | 16.1 | 0.00 | 0.00 | 0.00 | 77 | 1020.7 |
| 20260831134927 | 28 | 140 | 4.8 | 14.5 | 0.00 | 0.00 | 0.00 | 78 | 1020.8 |
| 20260831134900 | 28 | 148 | 4.8 | 14.5 | 0.00 | 0.00 | 0.00 | 78 | 1020.8 |
| 20260831134634 | 28 | 180 | 8.0 | 14.5 | 0.00 | 0.00 | 0.00 | 78 | 1020.7 |
| 20260831134522 | 28 | 139 | 8.0 | 14.5 | 0.00 | 0.00 | 0.00 | 78 | 1020.7 |
| 20260831134429 | 28 | 137 | 6.4 | 11.3 | 0.00 | 0.00 | 0.00 | 78 | 1020.8 |
| 20260831134357 | 28 | 188 | 6.4 | 11.3 | 0.00 | 0.00 | 0.00 | 78 | 1020.7 |
| 20260831134226 | 28 | 126 | 6.4 | 11.3 | 0.00 | 0.00 | 0.00 | 78 | 1020.7 |
| 20260831134134 | 28 | 198 | 6.4 | 11.3 | 0.00 | 0.00 | 0.00 | 77 | 1020.8 |
| 20260831134021 | 28 | 191 | 8.0 | 11.3 | 0.00 | 0.00 | 0.00 | 78 | 1020.7 |
| 20260831133928 | 28 | 192 | 8.0 | 12.9 | 0.00 | 0.00 | 0.00 | 78 | 1020.7 |
| 20260831133836 | 28 | 163 | 8.0 | 11.3 | 0.00 | 0.00 | 0.00 | 78 | 1020.7 |
| 20260831133728 | 27 | 182 | 6.4 | 11.3 | 0.00 | 0.00 | 0.00 | 79 | 1020.7 |
| 20260831133636 | 27 | 166 | 4.8 | 9.7 | 0.00 | 0.00 | 0.00 | 80 | 1020.8 |
| 20260831133524 | 27 | 113 | 6.4 | 9.7 | 0.00 | 0.00 | 0.00 | 79 | 1020.7 |
| 20260831133453 | 27 | 194 | 6.4 | 9.7 | 0.00 | 0.00 | 0.00 | 79 | 1020.7 |
| 20260831133402 | 27 | 186 | 6.4 | 9.7 | 0.00 | 0.00 | 0.00 | 79 | 1020.7 |
| 20260831133119 | 27 | 209 | 4.8 | 11.3 | 0.00 | 0.00 | 0.00 | 80 | 1020.7 |
| 20260831133028 | 27 | 198 | 4.8 | 11.3 | 0.00 | 0.00 | 0.00 | 80 | 1020.6 |
| 20260831132935 | 27 | 144 | 4.8 | 11.3 | 0.00 | 0.00 | 0.00 | 81 | 1020.6 |
| 20260831132823 | 27 | 119 | 4.8 | 11.3 | 0.00 | 0.00 | 0.00 | 81 | 1020.6 |
| 20260831132729 | 27 | 57 | 4.8 | 11.3 | 0.00 | 0.00 | 0.00 | 80 | 1020.6 |
| 20260831132621 | 27 | 144 | 6.4 | 11.3 | 0.00 | 0.00 | 0.00 | 81 | 1020.7 |
| 20260831132528 | 27 | 134 | 6.4 | 11.3 | 0.00 | 0.00 | 0.00 | 81 | 1020.6 |
| 20260831132435 | 27 | 157 | 6.4 | 9.7 | 0.00 | 0.00 | 0.00 | 81 | 1020.6 |
| 20260831132343 | 27 | 186 | 6.4 | 9.7 | 0.00 | 0.00 | 0.00 | 81 | 1020.6 |
| 20260831132229 | 27 | 146 | 6.4 | 8.0 | 0.00 | 0.00 | 0.00 | 81 | 1020.7 |
| 20260831132157 | 27 | 123 | 4.8 | 9.7 | 0.00 | 0.00 | 0.00 | 83 | 1020.6 |
| 20260831132023 | 27 | 130 | 4.8 | 8.0 | 0.00 | 0.00 | 0.00 | 83 | 1020.6 |
| 20260831131935 | 26 | 137 | 6.4 | 8.0 | 0.00 | 0.00 | 0.00 | 83 | 1020.7 |
| 20260831131906 | 26 | 132 | 6.4 | 8.0 | 0.00 | 0.00 | 0.00 | 83 | 1020.7 |
| 20260831131620 | 26 | 123 | 4.8 | 8.0 | 0.00 | 0.00 | 0.00 | 84 | 1020.7 |
| 20260831131527 | 26 | 160 | 4.8 | 8.0 | 0.00 | 0.00 | 0.00 | 84 | 1020.7 |
| 20260831131439 | 26 | 146 | 4.8 | 8.0 | 0.00 | 0.00 | 0.00 | 84 | 1020.5 |
| 20260831131326 | 26 | 137 | 4.8 | 8.0 | 0.00 | 0.00 | 0.00 | 84 | 1020.6 |
| 20260831131234 | 26 | 126 | 6.4 | 8.0 | 0.00 | 0.00 | 0.00 | 84 | 1020.5 |
| 20260831131121 | 26 | 120 | 6.4 | 8.0 | 0.00 | 0.00 | 0.00 | 84 | 1020.5 |
| 20260831131028 | 26 | 124 | 4.8 | 9.7 | 0.00 | 0.00 | 0.00 | 86 | 1020.5 |
| 20260831130955 | 26 | 111 | 4.8 | 6.4 | 0.00 | 0.00 | 0.00 | 86 | 1020.5 |
| 20260831130825 | 25 | 148 | 1.6 | 4.8 | 0.00 | 0.00 | 0.00 | 87 | 1020.5 |
| 20260831130751 | 25 | 133 | 0.0 | 4.8 | 0.00 | 0.00 | 0.00 | 86 | 1020.5 |
| 20260831130639 | 25 | 116 | 0.0 | 0.0 | 0.00 | 0.00 | 0.00 | 86 | 1020.5 |
| 20260831130546 | 25 | 126 | 0.0 | 0.0 | 0.00 | 0.00 | 0.00 | 87 | 1020.5 |
| 20260831130453 | 25 | 116 | 0.0 | 0.0 | 0.00 | 0.00 | 0.00 | 87 | 1020.5 |
| 20260831130423 | 25 | 103 | 0.0 | 0.0 | 0.00 | 0.00 | 0.00 | 88 | 1020.4 |
| 20260831130120 | 25 | 140 | 0.0 | 0.0 | 0.00 | 0.00 | 0.00 | 89 | 1020.4 |
| 20260831130046 | 24 | 140 | 0.0 | 0.0 | 0.00 | 0.00 | 0.00 | 90 | 1020.4 |
| 20260831125953 | 24 | 121 | 0.0 | 0.0 | 0.00 | 0.00 | 0.00 | 90 | 1020.4 |
| 20260831125838 | 24 | 121 | 0.0 | 0.0 | 0.00 | 0.00 | 0.00 | 90 | 1020.3 |
| 20260831125745 | 24 | 121 | 0.0 | 0.0 | 0.00 | 0.00 | 0.00 | 90 | 1020.3 |
| 20260831125652 | 24 | 92 | 0.0 | 0.0 | 0.00 | 0.00 | 0.00 | 91 | 1020.4 |
| 20260831125539 | 23 | 88 | 0.0 | 0.0 | 0.00 | 0.00 | 0.00 | 91 | 1020.3 |
| 20260831125429 | 23 | 114 | 0.0 | 0.0 | 0.00 | 0.00 | 0.00 | 92 | 1020.3 |
| 20260831125336 | 23 | 123 | 0.0 | 0.0 | 0.00 | 0.00 | 0.00 | 92 | 1020.3 |
| 20260831125223 | 23 | 70 | 0.0 | 0.0 | 0.00 | 0.00 | 0.00 | 92 | 1020.3 |
| 20260831125130 | 23 | 86 | 0.0 | 0.0 | 0.00 | 0.00 | 0.00 | 93 | 1020.4 |
| 20260831125038 | 23 | 111 | 0.0 | 0.0 | 0.00 | 0.00 | 0.00 | 94 | 1020.3 |
| 20260831124930 | 23 | 99 | 0.0 | 0.0 | 0.00 | 0.00 | 0.00 | 94 | 1020.3 |
| 20260831124900 | 23 | 99 | 0.0 | 0.0 | 0.00 | 0.00 | 0.00 | 94 | 1020.3 |
| 20260831124634 | 23 | 350 | 0.0 | 0.0 | 0.00 | 0.00 | 0.00 | 94 | 1020.3 |
| 20260831124521 | 23 | 350 | 0.0 | 0.0 | 0.00 | 0.00 | 0.00 | 94 | 1020.3 |
| 20260831124429 | 23 | 350 | 0.0 | 0.0 | 0.00 | 0.00 | 0.00 | 94 | 1020.3 |
| 20260831124320 | 23 | 350 | 0.0 | 0.0 | 0.00 | 0.00 | 0.00 | 93 | 1020.2 |
| 20260831124228 | 23 | 350 | 0.0 | 0.0 | 0.00 | 0.00 | 0.00 | 93 | 1020.2 |
| 20260831124155 | 22 | 350 | 0.0 | 0.0 | 0.00 | 0.00 | 0.00 | 93 | 1020.2 |
| 20260831124022 | 22 | 350 | 0.0 | 0.0 | 0.00 | 0.00 | 0.00 | 93 | 1020.2 |
| 20260831123928 | 22 | 350 | 0.0 | 0.0 | 0.00 | 0.00 | 0.00 | 93 | 1020.2 |
| 20260831123820 | 22 | 350 | 0.0 | 0.0 | 0.00 | 0.00 | 0.00 | 93 | 1020.2 |
| 20260831123726 | 22 | 350 | 0.0 | 0.0 | 0.00 | 0.00 | 0.00 | 94 | 1020.2 |
| 20260831123634 | 22 | 350 | 0.0 | 0.0 | 0.00 | 0.00 | 0.00 | 94 | 1020.2 |
| 20260831123520 | 22 | 350 | 0.0 | 0.0 | 0.00 | 0.00 | 0.00 | 94 | 1020.2 |
| 20260831123428 | 22 | 350 | 0.0 | 0.0 | 0.00 | 0.00 | 0.00 | 94 | 1020.2 |
| 20260831123404 | 22 | 350 | 0.0 | 0.0 | 0.00 | 0.00 | 0.00 | 94 | 1020.2 |
| 20260831123138 | 22 | 350 | 0.0 | 0.0 | 0.00 | 0.00 | 0.00 | 94 | 1020.2 |
| 20260831123024 | 22 | 350 | 0.0 | 0.0 | 0.00 | 0.00 | 0.00 | 94 | 1020.1 |
| 20260831122933 | 22 | 350 | 0.0 | 0.0 | 0.00 | 0.00 | 0.00 | 94 | 1020.1 |
| 20260831122840 | 22 | 350 | 0.0 | 0.0 | 0.00 | 0.00 | 0.00 | 94 | 1020.1 |
| 20260831122731 | 22 | 350 | 0.0 | 0.0 | 0.00 | 0.00 | 0.00 | 94 | 1020.1 |
| 20260831122639 | 22 | 350 | 0.0 | 0.0 | 0.00 | 0.00 | 0.00 | 94 | 1020.1 |
| 20260831122526 | 22 | 350 | 0.0 | 0.0 | 0.00 | 0.00 | 0.00 | 94 | 1020.1 |
| 20260831122432 | 22 | 350 | 0.0 | 0.0 | 0.00 | 0.00 | 0.00 | 94 | 1020.1 |
| 20260831122320 | 22 | 350 | 0.0 | 0.0 | 0.00 | 0.00 | 0.00 | 94 | 1020.1 |
| 20260831122228 | 22 | 350 | 0.0 | 0.0 | 0.00 | 0.00 | 0.00 | 94 | 1020.0 |
| 20260831122139 | 22 | 350 | 0.0 | 0.0 | 0.00 | 0.00 | 0.00 | 94 | 1020.1 |
| 20260831122026 | 22 | 350 | 0.0 | 0.0 | 0.00 | 0.00 | 0.00 | 94 | 1020.1 |
| 20260831121933 | 22 | 350 | 0.0 | 0.0 | 0.00 | 0.00 | 0.00 | 94 | 1020.1 |
| 20260831121903 | 22 | 350 | 0.0 | 0.0 | 0.00 | 0.00 | 0.00 | 94 | 1020.1 |
| 20260831121621 | 22 | 350 | 0.0 | 0.0 | 0.00 | 0.00 | 0.00 | 94 | 1020.0 |
| 20260831121530 | 22 | 350 | 0.0 | 0.0 | 0.00 | 0.00 | 0.00 | 94 | 1019.9 |
| 20260831121437 | 22 | 350 | 0.0 | 0.0 | 0.00 | 0.00 | 0.00 | 94 | 1019.9 |
| 20260831121324 | 22 | 350 | 0.0 | 0.0 | 0.00 | 0.00 | 0.00 | 94 | 1019.9 |
| 20260831121231 | 22 | 350 | 0.0 | 0.0 | 0.00 | 0.00 | 0.00 | 94 | 1019.8 |
| 20260831121122 | 22 | 350 | 0.0 | 0.0 | 0.00 | 0.00 | 0.00 | 94 | 1019.9 |
| 20260831121029 | 22 | 350 | 0.0 | 0.0 | 0.00 | 0.00 | 0.00 | 94 | 1019.9 |
| 20260831120937 | 22 | 350 | 0.0 | 0.0 | 0.00 | 0.00 | 0.00 | 94 | 1019.9 |
| 20260831120844 | 22 | 350 | 0.0 | 0.0 | 0.00 | 0.00 | 0.00 | 94 | 1019.8 |
| 20260831120731 | 22 | 350 | 0.0 | 0.0 | 0.00 | 0.00 | 0.00 | 94 | 1019.8 |
| 20260831120638 | 22 | 350 | 0.0 | 0.0 | 0.00 | 0.00 | 0.00 | 94 | 1019.8 |
| 20260831120529 | 22 | 350 | 0.0 | 0.0 | 0.00 | 0.00 | 0.00 | 94 | 1019.8 |
| 20260831120456 | 22 | 350 | 0.0 | 0.0 | 0.00 | 0.00 | 0.00 | 94 | 1019.8 |
| 20260831120428 | 22 | 350 | 0.0 | 0.0 | 0.00 | 0.00 | 0.00 | 94 | 1019.9 |
| 20260831120121 | 22 | 350 | 0.0 | 0.0 | 0.00 | 0.00 | 0.00 | 94 | 1019.8 |
| 20260831120028 | 22 | 350 | 0.0 | 0.0 | 0.00 | 0.00 | 0.00 | 94 | 1019.8 |
| 20260831115920 | 22 | 350 | 0.0 | 0.0 | 0.00 | 0.00 | 0.00 | 94 | 1019.8 |
| 20260831115827 | 22 | 350 | 0.0 | 0.0 | 0.00 | 0.00 | 0.00 | 94 | 1019.7 |
| 20260831115735 | 22 | 350 | 0.0 | 0.0 | 0.00 | 0.00 | 0.00 | 94 | 1019.8 |
| 20260831115623 | 21 | 350 | 0.0 | 0.0 | 0.00 | 0.00 | 0.00 | 94 | 1019.7 |
| 20260831115530 | 21 | 350 | 0.0 | 0.0 | 0.00 | 0.00 | 0.00 | 93 | 1019.7 |
| 20260831115422 | 21 | 350 | 0.0 | 0.0 | 0.00 | 0.00 | 0.00 | 93 | 1019.6 |
| 20260831115329 | 21 | 350 | 0.0 | 0.0 | 0.00 | 0.00 | 0.00 | 93 | 1019.8 |
| 20260831115258 | 21 | 350 | 0.0 | 0.0 | 0.00 | 0.00 | 0.00 | 93 | 1019.8 |
| 20260831115125 | 21 | 350 | 0.0 | 0.0 | 0.00 | 0.00 | 0.00 | 93 | 1019.8 |
| 20260831115033 | 21 | 350 | 0.0 | 0.0 | 0.00 | 0.00 | 0.00 | 93 | 1019.8 |